Observation data for Colorado City on 09/09/2017      Previous  Date  Next       Current Mesonet Observations  Soil Data  Daily Summary Page  Observations in Plain Language
KCO2 090500Z 11006KT 17/09 A3016 RMK A01 T01730087  RH  057%=      5-min Rain = 0
KCO2 090501Z 11005KT 17/09 A3016 RMK A01 T01730087  RH  057%=      5-min Rain = 0
KCO2 090502Z 11005KT 17/09 A3016 RMK A01 T01730087  RH  057%=      5-min Rain = 0
KCO2 090503Z 11006KT 17/09 A3016 RMK A01 T01730087  RH  057%=      5-min Rain = 0
KCO2 090504Z 11005KT 17/09 A3016 RMK A01 T01730087  RH  057%=      5-min Rain = 0
KCO2 090505Z 11005KT 17/09 A3016 RMK A01 T01730087  RH  057%=      5-min Rain = 0
KCO2 090506Z 11005KT 17/09 A3016 RMK A01 T01730088  RH  057%=      5-min Rain = 0
KCO2 090507Z 11005KT 17/09 A3016 RMK A01 T01720087  RH  057%=      5-min Rain = 0
KCO2 090508Z 11005KT 17/09 A3016 RMK A01 T01710087  RH  058%=      5-min Rain = 0
KCO2 090509Z 11005KT 17/09 A3016 RMK A01 T01710088  RH  058%=      5-min Rain = 0
KCO2 090510Z 11005KT 17/09 A3016 RMK A01 T01710088  RH  058%=      5-min Rain = 0
KCO2 090511Z 11005KT 17/09 A3016 RMK A01 T01710087  RH  058%=      5-min Rain = 0
KCO2 090512Z 11005KT 17/09 A3016 RMK A01 T01710087  RH  058%=      5-min Rain = 0
KCO2 090513Z 11005KT 17/09 A3016 RMK A01 T01710087  RH  058%=      5-min Rain = 0
KCO2 090514Z 11005KT 17/09 A3016 RMK A01 T01710087  RH  058%=      5-min Rain = 0
KCO2 090515Z 11005KT 17/09 A3016 RMK A01 T01710087  RH  058%=      5-min Rain = 0
KCO2 090516Z 11005KT 17/09 A3016 RMK A01 T01710087  RH  058%=      5-min Rain = 0
KCO2 090517Z 12005KT 17/09 A3016 RMK A01 T01710087  RH  058%=      5-min Rain = 0
KCO2 090518Z 12005KT 17/09 A3016 RMK A01 T01710087  RH  058%=      5-min Rain = 0
KCO2 090519Z 12005KT 17/09 A3016 RMK A01 T01700087  RH  058%=      5-min Rain = 0
KCO2 090520Z 12005KT 17/09 A3016 RMK A01 T01690087  RH  058%=      5-min Rain = 0
KCO2 090521Z 12005KT 17/09 A3016 RMK A01 T01680087  RH  059%=      5-min Rain = 0
KCO2 090522Z 12005KT 17/09 A3016 RMK A01 T01680086  RH  059%=      5-min Rain = 0
KCO2 090523Z 12005KT 17/09 A3016 RMK A01 T01680086  RH  059%=      5-min Rain = 0
KCO2 090524Z 12006KT 17/09 A3016 RMK A01 T01680086  RH  059%=      5-min Rain = 0
KCO2 090525Z 12006KT 17/09 A3016 RMK A01 T01680087  RH  059%=      5-min Rain = 0
KCO2 090526Z 12006KT 17/09 A3016 RMK A01 T01670086  RH  059%=      5-min Rain = 0
KCO2 090527Z 12007KT 17/09 A3016 RMK A01 T01670086  RH  059%=      5-min Rain = 0
KCO2 090528Z 12007KT 17/09 A3016 RMK A01 T01660086  RH  059%=      5-min Rain = 0
KCO2 090529Z 12007KT 17/09 A3016 RMK A01 T01660086  RH  059%=      5-min Rain = 0
KCO2 090530Z 12007KT 17/09 A3016 RMK A01 T01660086  RH  059%=      5-min Rain = 0
KCO2 090531Z 12007KT 17/09 A3016 RMK A01 T01660086  RH  059%=      5-min Rain = 0
KCO2 090532Z 12006KT 17/09 A3016 RMK A01 T01670086  RH  059%=      5-min Rain = 0
KCO2 090533Z 12007KT 17/09 A3016 RMK A01 T01670086  RH  059%=      5-min Rain = 0
KCO2 090534Z 12007KT 17/09 A3016 RMK A01 T01680086  RH  058%=      5-min Rain = 0
KCO2 090535Z 12006KT 17/09 A3016 RMK A01 T01680085  RH  058%=      5-min Rain = 0
KCO2 090536Z 12006KT 17/09 A3016 RMK A01 T01700086  RH  058%=      5-min Rain = 0
KCO2 090537Z 12007KT 17/09 A3016 RMK A01 T01700086  RH  057%=      5-min Rain = 0
KCO2 090538Z 12006KT 17/09 A3016 RMK A01 T01710086  RH  057%=      5-min Rain = 0
KCO2 090539Z 12006KT 17/09 A3016 RMK A01 T01710085  RH  057%=      5-min Rain = 0
KCO2 090540Z 13005KT 17/09 A3016 RMK A01 T01700086  RH  057%=      5-min Rain = 0
KCO2 090541Z 13005KT 17/09 A3016 RMK A01 T01700086  RH  057%=      5-min Rain = 0
KCO2 090542Z 13005KT 17/09 A3016 RMK A01 T01700086  RH  058%=      5-min Rain = 0
KCO2 090543Z 13006KT 17/09 A3016 RMK A01 T01690086  RH  058%=      5-min Rain = 0
KCO2 090544Z 13006KT 17/09 A3016 RMK A01 T01680086  RH  058%=      5-min Rain = 0
KCO2 090545Z 13006KT 17/09 A3016 RMK A01 T01670085  RH  058%=      5-min Rain = 0
KCO2 090546Z 13006KT 17/09 A3016 RMK A01 T01670085  RH  059%=      5-min Rain = 0
KCO2 090547Z 13006KT 17/09 A3016 RMK A01 T01660085  RH  059%=      5-min Rain = 0
KCO2 090548Z 13006KT 17/09 A3016 RMK A01 T01660085  RH  059%=      5-min Rain = 0
KCO2 090549Z 12006KT 17/09 A3016 RMK A01 T01660085  RH  059%=      5-min Rain = 0
KCO2 090550Z 12006KT 17/09 A3016 RMK A01 T01660085  RH  059%=      5-min Rain = 0
KCO2 090551Z 12006KT 17/09 A3016 RMK A01 T01670085  RH  058%=      5-min Rain = 0
KCO2 090552Z 12006KT 17/09 A3016 RMK A01 T01670085  RH  058%=      5-min Rain = 0
KCO2 090553Z 12006KT 17/09 A3016 RMK A01 T01680085  RH  058%=      5-min Rain = 0
KCO2 090554Z 12006KT 17/09 A3016 RMK A01 T01680085  RH  058%=      5-min Rain = 0
KCO2 090555Z 12006KT 17/09 A3016 RMK A01 T01680085  RH  058%=      5-min Rain = 0
KCO2 090556Z 13007KT 17/09 A3016 RMK A01 T01680085  RH  058%=      5-min Rain = 0
KCO2 090557Z 13007KT 17/09 A3016 RMK A01 T01680085  RH  058%=      5-min Rain = 0
KCO2 090558Z 13006KT 17/09 A3016 RMK A01 T01680085  RH  058%=      5-min Rain = 0
KCO2 090559Z 13006KT 17/09 A3016 RMK A01 T01680086  RH  058%=      5-min Rain = 0
KCO2 090600Z 13006KT 17/09 A3016 RMK A01 T01670086  RH  059%=      5-min Rain = 0
KCO2 090601Z 13006KT 17/09 A3016 RMK A01 T01670086  RH  059%=      5-min Rain = 0
KCO2 090602Z 12007KT 17/09 A3016 RMK A01 T01660086  RH  059%=      5-min Rain = 0
KCO2 090603Z 12007KT 17/09 A3016 RMK A01 T01660086  RH  059%=      5-min Rain = 0
KCO2 090604Z 12006KT 17/09 A3016 RMK A01 T01670085  RH  059%=      5-min Rain = 0
KCO2 090605Z 12006KT 17/09 A3017 RMK A01 T01670085  RH  058%=      5-min Rain = 0
KCO2 090606Z 12007KT 17/09 A3017 RMK A01 T01670086  RH  058%=      5-min Rain = 0
KCO2 090607Z 12007KT 17/09 A3017 RMK A01 T01680086  RH  058%=      5-min Rain = 0
KCO2 090608Z 12007KT 17/09 A3017 RMK A01 T01680085  RH  058%=      5-min Rain = 0
KCO2 090609Z 12007KT 17/09 A3017 RMK A01 T01680085  RH  058%=      5-min Rain = 0
KCO2 090610Z 12006KT 17/09 A3017 RMK A01 T01690086  RH  058%=      5-min Rain = 0
KCO2 090611Z 12007KT 17/09 A3017 RMK A01 T01690086  RH  058%=      5-min Rain = 0
KCO2 090612Z 11007KT 17/09 A3017 RMK A01 T01690085  RH  058%=      5-min Rain = 0
KCO2 090613Z 12007KT 17/09 A3016 RMK A01 T01700086  RH  058%=      5-min Rain = 0
KCO2 090614Z 12006KT 17/09 A3016 RMK A01 T01690086  RH  058%=      5-min Rain = 0
KCO2 090615Z 12006KT 17/09 A3016 RMK A01 T01690086  RH  058%=      5-min Rain = 0
KCO2 090616Z 12006KT 17/09 A3016 RMK A01 T01690086  RH  058%=      5-min Rain = 0
KCO2 090617Z 12006KT 17/09 A3016 RMK A01 T01680086  RH  058%=      5-min Rain = 0
KCO2 090618Z 12006KT 17/09 A3016 RMK A01 T01680086  RH  059%=      5-min Rain = 0
KCO2 090619Z 12006KT 17/09 A3016 RMK A01 T01670086  RH  059%=      5-min Rain = 0
KCO2 090620Z 12006KT 17/09 A3016 RMK A01 T01660086  RH  059%=      5-min Rain = 0
KCO2 090621Z 12006KT 17/09 A3016 RMK A01 T01660086  RH  059%=      5-min Rain = 0
KCO2 090622Z 12006KT 17/09 A3016 RMK A01 T01650086  RH  059%=      5-min Rain = 0
KCO2 090623Z 12007KT 17/09 A3016 RMK A01 T01650086  RH  060%=      5-min Rain = 0
KCO2 090624Z 12007KT 17/09 A3016 RMK A01 T01650086  RH  060%=      5-min Rain = 0
KCO2 090625Z 12007KT 16/09 A3016 RMK A01 T01640086  RH  060%=      5-min Rain = 0
KCO2 090626Z 11007KT 17/09 A3016 RMK A01 T01650086  RH  060%=      5-min Rain = 0
KCO2 090627Z 11007KT 17/09 A3016 RMK A01 T01650087  RH  060%=      5-min Rain = 0
KCO2 090628Z 11007KT 17/09 A3016 RMK A01 T01650087  RH  060%=      5-min Rain = 0
KCO2 090629Z 11007KT 17/09 A3016 RMK A01 T01650087  RH  060%=      5-min Rain = 0
KCO2 090630Z 11007KT 17/09 A3016 RMK A01 T01650087  RH  060%=      5-min Rain = 0
KCO2 090631Z 11007KT 17/09 A3016 RMK A01 T01650087  RH  060%=      5-min Rain = 0
KCO2 090632Z 11006KT 16/09 A3017 RMK A01 T01640087  RH  060%=      5-min Rain = 0
KCO2 090633Z 11006KT 16/09 A3017 RMK A01 T01640087  RH  060%=      5-min Rain = 0
KCO2 090634Z 11006KT 16/09 A3017 RMK A01 T01640087  RH  061%=      5-min Rain = 0
KCO2 090635Z 12006KT 16/09 A3017 RMK A01 T01630088  RH  061%=      5-min Rain = 0
KCO2 090636Z 11006KT 16/09 A3017 RMK A01 T01630087  RH  061%=      5-min Rain = 0
KCO2 090637Z 11006KT 16/09 A3017 RMK A01 T01620088  RH  061%=      5-min Rain = 0
KCO2 090638Z 11007KT 16/09 A3017 RMK A01 T01610088  RH  062%=      5-min Rain = 0
KCO2 090639Z 12007KT 16/09 A3017 RMK A01 T01610088  RH  062%=      5-min Rain = 0
KCO2 090640Z 11007KT 16/09 A3017 RMK A01 T01610088  RH  062%=      5-min Rain = 0
KCO2 090641Z 12007KT 16/09 A3017 RMK A01 T01610088  RH  062%=      5-min Rain = 0
KCO2 090642Z 12007KT 16/09 A3017 RMK A01 T01610088  RH  062%=      5-min Rain = 0
KCO2 090643Z 11007KT 16/09 A3017 RMK A01 T01600088  RH  062%=      5-min Rain = 0
KCO2 090644Z 11007KT 16/09 A3017 RMK A01 T01600088  RH  062%=      5-min Rain = 0
KCO2 090645Z 11007KT 16/09 A3017 RMK A01 T01590088  RH  062%=      5-min Rain = 0
KCO2 090646Z 12007KT 16/09 A3017 RMK A01 T01600088  RH  063%=      5-min Rain = 0
KCO2 090647Z 12007KT 16/09 A3017 RMK A01 T01590088  RH  063%=      5-min Rain = 0
KCO2 090648Z 12007KT 16/09 A3017 RMK A01 T01590088  RH  063%=      5-min Rain = 0
KCO2 090649Z 12007KT 16/09 A3017 RMK A01 T01590089  RH  063%=      5-min Rain = 0
KCO2 090650Z 12007KT 16/09 A3017 RMK A01 T01590088  RH  063%=      5-min Rain = 0
KCO2 090651Z 12008KT 16/09 A3017 RMK A01 T01580089  RH  063%=      5-min Rain = 0
KCO2 090652Z 12008KT 16/09 A3017 RMK A01 T01580089  RH  063%=      5-min Rain = 0
KCO2 090653Z 12008KT 16/09 A3017 RMK A01 T01580089  RH  063%=      5-min Rain = 0
KCO2 090654Z 12008KT 16/09 A3017 RMK A01 T01580089  RH  063%=      5-min Rain = 0
KCO2 090655Z 12008KT 16/09 A3017 RMK A01 T01580089  RH  063%=      5-min Rain = 0
KCO2 090656Z 12008KT 16/09 A3017 RMK A01 T01580089  RH  064%=      5-min Rain = 0
KCO2 090657Z 12008KT 16/09 A3017 RMK A01 T01580089  RH  064%=      5-min Rain = 0
KCO2 090658Z 12007KT 16/09 A3017 RMK A01 T01580090  RH  064%=      5-min Rain = 0
KCO2 090659Z 12007KT 16/09 A3017 RMK A01 T01580089  RH  064%=      5-min Rain = 0
KCO2 090700Z 12007KT 16/09 A3017 RMK A01 T01580090  RH  064%=      5-min Rain = 0
KCO2 090701Z 12007KT 16/09 A3017 RMK A01 T01580090  RH  064%=      5-min Rain = 0
KCO2 090702Z 12007KT 16/09 A3017 RMK A01 T01580090  RH  064%=      5-min Rain = 0
KCO2 090703Z 12007KT 16/09 A3017 RMK A01 T01580090  RH  064%=      5-min Rain = 0
KCO2 090704Z 12007KT 16/09 A3017 RMK A01 T01570090  RH  064%=      5-min Rain = 0
KCO2 090705Z 12007KT 16/09 A3017 RMK A01 T01570090  RH  064%=      5-min Rain = 0
KCO2 090706Z 12007KT 16/09 A3017 RMK A01 T01570090  RH  064%=      5-min Rain = 0
KCO2 090707Z 12007KT 16/09 A3017 RMK A01 T01570090  RH  065%=      5-min Rain = 0
KCO2 090708Z 12007KT 16/09 A3017 RMK A01 T01570090  RH  065%=      5-min Rain = 0
KCO2 090709Z 12007KT 16/09 A3017 RMK A01 T01560090  RH  065%=      5-min Rain = 0
KCO2 090710Z 12007KT 16/09 A3017 RMK A01 T01560090  RH  065%=      5-min Rain = 0
KCO2 090711Z 12007KT 16/09 A3017 RMK A01 T01560090  RH  065%=      5-min Rain = 0
KCO2 090712Z 12007KT 16/09 A3017 RMK A01 T01560090  RH  065%=      5-min Rain = 0
KCO2 090713Z 12007KT 16/09 A3017 RMK A01 T01560090  RH  065%=      5-min Rain = 0
KCO2 090714Z 12007KT 16/09 A3017 RMK A01 T01560090  RH  065%=      5-min Rain = 0
KCO2 090715Z 12007KT 16/09 A3017 RMK A01 T01570090  RH  065%=      5-min Rain = 0
KCO2 090716Z 12007KT 16/09 A3017 RMK A01 T01570091  RH  064%=      5-min Rain = 0
KCO2 090717Z 12007KT 16/09 A3017 RMK A01 T01580090  RH  064%=      5-min Rain = 0
KCO2 090718Z 12007KT 16/09 A3017 RMK A01 T01580091  RH  064%=      5-min Rain = 0
KCO2 090719Z 12007KT 16/09 A3017 RMK A01 T01580091  RH  064%=      5-min Rain = 0
KCO2 090720Z 12007KT 16/09 A3017 RMK A01 T01580091  RH  064%=      5-min Rain = 0
KCO2 090721Z 12006KT 16/09 A3017 RMK A01 T01580091  RH  064%=      5-min Rain = 0
KCO2 090722Z 12006KT 16/09 A3017 RMK A01 T01580091  RH  064%=      5-min Rain = 0
KCO2 090723Z 12007KT 16/09 A3017 RMK A01 T01580091  RH  065%=      5-min Rain = 0
KCO2 090724Z 13006KT 16/09 A3017 RMK A01 T01570091  RH  065%=      5-min Rain = 0
KCO2 090725Z 12006KT 16/09 A3017 RMK A01 T01570091  RH  065%=      5-min Rain = 0
KCO2 090726Z 13007KT 16/09 A3017 RMK A01 T01560091  RH  065%=      5-min Rain = 0
KCO2 090727Z 12007KT 16/09 A3017 RMK A01 T01570091  RH  065%=      5-min Rain = 0
KCO2 090728Z 12007KT 16/09 A3017 RMK A01 T01570091  RH  065%=      5-min Rain = 0
KCO2 090729Z 12006KT 16/09 A3017 RMK A01 T01570091  RH  065%=      5-min Rain = 0
KCO2 090730Z 13007KT 16/09 A3017 RMK A01 T01570091  RH  065%=      5-min Rain = 0
KCO2 090731Z 12007KT 16/09 A3017 RMK A01 T01570091  RH  065%=      5-min Rain = 0
KCO2 090732Z 13007KT 16/09 A3017 RMK A01 T01570091  RH  065%=      5-min Rain = 0
KCO2 090733Z 13007KT 16/09 A3017 RMK A01 T01580091  RH  065%=      5-min Rain = 0
KCO2 090734Z 13007KT 16/09 A3017 RMK A01 T01580092  RH  065%=      5-min Rain = 0
KCO2 090735Z 12007KT 16/09 A3017 RMK A01 T01590092  RH  064%=      5-min Rain = 0
KCO2 090736Z 13007KT 16/09 A3017 RMK A01 T01600092  RH  064%=      5-min Rain = 0
KCO2 090737Z 13007KT 16/09 A3017 RMK A01 T01610092  RH  064%=      5-min Rain = 0
KCO2 090738Z 12008KT 16/09 A3017 RMK A01 T01610093  RH  064%=      5-min Rain = 0
KCO2 090739Z 12007KT 16/09 A3017 RMK A01 T01620093  RH  064%=      5-min Rain = 0
KCO2 090740Z 12008KT 16/09 A3017 RMK A01 T01620093  RH  064%=      5-min Rain = 0
KCO2 090741Z 12008KT 16/09 A3017 RMK A01 T01630093  RH  063%=      5-min Rain = 0
KCO2 090742Z 12008KT 16/09 A3017 RMK A01 T01640094  RH  063%=      5-min Rain = 0
KCO2 090743Z 12007KT 16/09 A3017 RMK A01 T01640094  RH  063%=      5-min Rain = 0
KCO2 090744Z 12008KT 16/09 A3017 RMK A01 T01640094  RH  063%=      5-min Rain = 0
KCO2 090745Z 12008KT 16/09 A3017 RMK A01 T01640094  RH  063%=      5-min Rain = 0
KCO2 090746Z 12008KT 16/09 A3017 RMK A01 T01640094  RH  063%=      5-min Rain = 0
KCO2 090747Z 12008KT 16/09 A3017 RMK A01 T01640094  RH  063%=      5-min Rain = 0
KCO2 090748Z 12008KT 16/09 A3017 RMK A01 T01640094  RH  063%=      5-min Rain = 0
KCO2 090749Z 12007KT 16/09 A3017 RMK A01 T01630094  RH  064%=      5-min Rain = 0
KCO2 090750Z 12007KT 16/10 A3017 RMK A01 T01630095  RH  064%=      5-min Rain = 0
KCO2 090751Z 12007KT 16/10 A3017 RMK A01 T01630095  RH  064%=      5-min Rain = 0
KCO2 090752Z 12008KT 16/10 A3017 RMK A01 T01620095  RH  064%=      5-min Rain = 0
KCO2 090753Z 12007KT 16/10 A3017 RMK A01 T01620095  RH  064%=      5-min Rain = 0
KCO2 090754Z 12007KT 16/10 A3017 RMK A01 T01620095  RH  065%=      5-min Rain = 0
KCO2 090755Z 12008KT 16/10 A3017 RMK A01 T01610095  RH  065%=      5-min Rain = 0
KCO2 090756Z 12007KT 16/10 A3017 RMK A01 T01610096  RH  065%=      5-min Rain = 0
KCO2 090757Z 12008KT 16/10 A3017 RMK A01 T01610095  RH  065%=      5-min Rain = 0
KCO2 090758Z 12008KT 16/10 A3017 RMK A01 T01600095  RH  065%=      5-min Rain = 0
KCO2 090759Z 12008KT 16/10 A3017 RMK A01 T01600096  RH  065%=      5-min Rain = 0
KCO2 090800Z 12007KT 16/10 A3017 RMK A01 T01600095  RH  066%=      5-min Rain = 0
KCO2 090801Z 12007KT 16/10 A3017 RMK A01 T01590095  RH  066%=      5-min Rain = 0
KCO2 090802Z 12007KT 16/10 A3017 RMK A01 T01590096  RH  066%=      5-min Rain = 0
KCO2 090803Z 12007KT 16/10 A3017 RMK A01 T01580095  RH  066%=      5-min Rain = 0
KCO2 090804Z 12007KT 16/10 A3017 RMK A01 T01570095  RH  067%=      5-min Rain = 0
KCO2 090805Z 12007KT 16/10 A3017 RMK A01 T01570096  RH  067%=      5-min Rain = 0
KCO2 090806Z 12007KT 16/10 A3017 RMK A01 T01560095  RH  067%=      5-min Rain = 0
KCO2 090807Z 11007KT 16/10 A3017 RMK A01 T01560096  RH  067%=      5-min Rain = 0
KCO2 090808Z 11007KT 16/10 A3017 RMK A01 T01560096  RH  067%=      5-min Rain = 0
KCO2 090809Z 11007KT 16/10 A3017 RMK A01 T01550096  RH  068%=      5-min Rain = 0
KCO2 090810Z 11007KT 15/10 A3017 RMK A01 T01540096  RH  068%=      5-min Rain = 0
KCO2 090811Z 11007KT 15/10 A3017 RMK A01 T01540096  RH  068%=      5-min Rain = 0
KCO2 090812Z 11007KT 15/10 A3017 RMK A01 T01540096  RH  068%=      5-min Rain = 0
KCO2 090813Z 11007KT 15/10 A3017 RMK A01 T01540096  RH  068%=      5-min Rain = 0
KCO2 090814Z 11007KT 15/10 A3017 RMK A01 T01540096  RH  068%=      5-min Rain = 0
KCO2 090815Z 11007KT 15/10 A3017 RMK A01 T01540096  RH  068%=      5-min Rain = 0
KCO2 090816Z 11007KT 15/10 A3017 RMK A01 T01540096  RH  069%=      5-min Rain = 0
KCO2 090817Z 11007KT 15/10 A3017 RMK A01 T01530096  RH  069%=      5-min Rain = 0
KCO2 090818Z 11007KT 15/10 A3017 RMK A01 T01530096  RH  069%=      5-min Rain = 0
KCO2 090819Z 11007KT 15/10 A3017 RMK A01 T01530096  RH  069%=      5-min Rain = 0
KCO2 090820Z 11007KT 15/10 A3017 RMK A01 T01520096  RH  069%=      5-min Rain = 0
KCO2 090821Z 11007KT 15/10 A3017 RMK A01 T01520096  RH  069%=      5-min Rain = 0
KCO2 090822Z 11007KT 15/10 A3017 RMK A01 T01520097  RH  070%=      5-min Rain = 0
KCO2 090823Z 11007KT 15/10 A3017 RMK A01 T01510096  RH  070%=      5-min Rain = 0
KCO2 090824Z 11007KT 15/10 A3017 RMK A01 T01510096  RH  070%=      5-min Rain = 0
KCO2 090825Z 11007KT 15/10 A3017 RMK A01 T01500096  RH  070%=      5-min Rain = 0
KCO2 090826Z 11007KT 15/10 A3017 RMK A01 T01500096  RH  070%=      5-min Rain = 0
KCO2 090827Z 11007KT 15/10 A3017 RMK A01 T01500096  RH  070%=      5-min Rain = 0
KCO2 090828Z 11007KT 15/10 A3017 RMK A01 T01490096  RH  070%=      5-min Rain = 0
KCO2 090829Z 11007KT 15/10 A3017 RMK A01 T01500097  RH  070%=      5-min Rain = 0
KCO2 090830Z 11007KT 15/10 A3017 RMK A01 T01490096  RH  070%=      5-min Rain = 0
KCO2 090831Z 11007KT 15/10 A3017 RMK A01 T01500096  RH  070%=      5-min Rain = 0
KCO2 090832Z 12007KT 15/10 A3017 RMK A01 T01490096  RH  070%=      5-min Rain = 0
KCO2 090833Z 12007KT 15/10 A3017 RMK A01 T01490096  RH  070%=      5-min Rain = 0
KCO2 090834Z 11007KT 15/10 A3017 RMK A01 T01490096  RH  071%=      5-min Rain = 0
KCO2 090835Z 11006KT 15/10 A3017 RMK A01 T01480096  RH  071%=      5-min Rain = 0
KCO2 090836Z 12006KT 15/10 A3017 RMK A01 T01480096  RH  071%=      5-min Rain = 0
KCO2 090837Z 12006KT 15/10 A3017 RMK A01 T01470096  RH  071%=      5-min Rain = 0
KCO2 090838Z 12006KT 15/10 A3017 RMK A01 T01470096  RH  071%=      5-min Rain = 0
KCO2 090839Z 12006KT 15/10 A3017 RMK A01 T01470096  RH  071%=      5-min Rain = 0
KCO2 090840Z 12006KT 15/10 A3017 RMK A01 T01470097  RH  072%=      5-min Rain = 0
KCO2 090841Z 12006KT 15/10 A3017 RMK A01 T01470096  RH  072%=      5-min Rain = 0
KCO2 090842Z 12006KT 15/10 A3017 RMK A01 T01470096  RH  072%=      5-min Rain = 0
KCO2 090843Z 12007KT 15/10 A3017 RMK A01 T01470096  RH  072%=      5-min Rain = 0
KCO2 090844Z 12007KT 15/10 A3017 RMK A01 T01460096  RH  072%=      5-min Rain = 0
KCO2 090845Z 12007KT 15/10 A3017 RMK A01 T01460096  RH  072%=      5-min Rain = 0
KCO2 090846Z 12007KT 15/10 A3017 RMK A01 T01460096  RH  072%=      5-min Rain = 0
KCO2 090847Z 12007KT 15/10 A3017 RMK A01 T01450096  RH  072%=      5-min Rain = 0
KCO2 090848Z 13007KT 15/10 A3017 RMK A01 T01450096  RH  072%=      5-min Rain = 0
KCO2 090849Z 13007KT 15/10 A3017 RMK A01 T01450096  RH  073%=      5-min Rain = 0
KCO2 090850Z 13007KT 15/10 A3017 RMK A01 T01450097  RH  073%=      5-min Rain = 0
KCO2 090851Z 13007KT 15/10 A3017 RMK A01 T01450096  RH  073%=      5-min Rain = 0
KCO2 090852Z 13006KT 15/10 A3017 RMK A01 T01460097  RH  073%=      5-min Rain = 0
KCO2 090853Z 13007KT 15/10 A3017 RMK A01 T01460097  RH  072%=      5-min Rain = 0
KCO2 090854Z 13006KT 15/10 A3017 RMK A01 T01460097  RH  072%=      5-min Rain = 0
KCO2 090855Z 13006KT 15/10 A3017 RMK A01 T01460097  RH  072%=      5-min Rain = 0
KCO2 090856Z 13006KT 15/10 A3017 RMK A01 T01470097  RH  072%=      5-min Rain = 0
KCO2 090857Z 13006KT 15/10 A3017 RMK A01 T01470097  RH  072%=      5-min Rain = 0
KCO2 090858Z 13006KT 15/10 A3017 RMK A01 T01460097  RH  072%=      5-min Rain = 0
KCO2 090859Z 13006KT 15/10 A3017 RMK A01 T01460098  RH  073%=      5-min Rain = 0
KCO2 090900Z 13006KT 15/10 A3017 RMK A01 T01450097  RH  073%=      5-min Rain = 0
KCO2 090901Z 13006KT 15/10 A3017 RMK A01 T01450097  RH  073%=      5-min Rain = 0
KCO2 090902Z 13006KT 15/10 A3017 RMK A01 T01450097  RH  073%=      5-min Rain = 0
KCO2 090903Z 13006KT 14/10 A3017 RMK A01 T01440097  RH  073%=      5-min Rain = 0
KCO2 090904Z 13006KT 15/10 A3017 RMK A01 T01450098  RH  073%=      5-min Rain = 0
KCO2 090905Z 13006KT 14/10 A3017 RMK A01 T01440098  RH  074%=      5-min Rain = 0
KCO2 090906Z 14006KT 14/10 A3017 RMK A01 T01440098  RH  074%=      5-min Rain = 0
KCO2 090907Z 13006KT 14/10 A3017 RMK A01 T01440098  RH  074%=      5-min Rain = 0
KCO2 090908Z 13006KT 14/10 A3017 RMK A01 T01430097  RH  074%=      5-min Rain = 0
KCO2 090909Z 13006KT 14/10 A3017 RMK A01 T01430097  RH  074%=      5-min Rain = 0
KCO2 090910Z 13006KT 14/10 A3017 RMK A01 T01430097  RH  074%=      5-min Rain = 0
KCO2 090911Z 13006KT 14/10 A3017 RMK A01 T01430097  RH  074%=      5-min Rain = 0
KCO2 090912Z 13006KT 14/10 A3017 RMK A01 T01430098  RH  074%=      5-min Rain = 0
KCO2 090913Z 13006KT 14/10 A3017 RMK A01 T01430097  RH  074%=      5-min Rain = 0
KCO2 090914Z 13006KT 14/10 A3017 RMK A01 T01430098  RH  074%=      5-min Rain = 0
KCO2 090915Z 13006KT 14/10 A3017 RMK A01 T01430098  RH  074%=      5-min Rain = 0
KCO2 090916Z 13006KT 14/10 A3017 RMK A01 T01420097  RH  074%=      5-min Rain = 0
KCO2 090917Z 12006KT 14/10 A3017 RMK A01 T01420098  RH  075%=      5-min Rain = 0
KCO2 090918Z 12006KT 14/10 A3017 RMK A01 T01430098  RH  074%=      5-min Rain = 0
KCO2 090919Z 12006KT 14/10 A3017 RMK A01 T01430098  RH  074%=      5-min Rain = 0
KCO2 090920Z 12006KT 14/10 A3017 RMK A01 T01440098  RH  074%=      5-min Rain = 0
KCO2 090921Z 12006KT 15/10 A3017 RMK A01 T01450099  RH  074%=      5-min Rain = 0
KCO2 090922Z 12007KT 15/10 A3017 RMK A01 T01450099  RH  073%=      5-min Rain = 0
KCO2 090923Z 12007KT 15/10 A3017 RMK A01 T01460099  RH  073%=      5-min Rain = 0
KCO2 090924Z 12007KT 15/10 A3017 RMK A01 T01460099  RH  073%=      5-min Rain = 0
KCO2 090925Z 12007KT 15/10 A3017 RMK A01 T01460099  RH  074%=      5-min Rain = 0
KCO2 090926Z 12007KT 15/10 A3017 RMK A01 T01460099  RH  074%=      5-min Rain = 0
KCO2 090927Z 12007KT 15/10 A3017 RMK A01 T01450099  RH  074%=      5-min Rain = 0
KCO2 090928Z 12007KT 15/10 A3017 RMK A01 T01450100  RH  074%=      5-min Rain = 0
KCO2 090929Z 12007KT 15/10 A3017 RMK A01 T01450100  RH  074%=      5-min Rain = 0
KCO2 090930Z 12007KT 15/10 A3017 RMK A01 T01450100  RH  074%=      5-min Rain = 0
KCO2 090931Z 12007KT 15/10 A3017 RMK A01 T01450100  RH  074%=      5-min Rain = 0
KCO2 090932Z 12007KT 15/10 A3017 RMK A01 T01450100  RH  074%=      5-min Rain = 0
KCO2 090933Z 12006KT 15/10 A3017 RMK A01 T01450100  RH  075%=      5-min Rain = 0
KCO2 090934Z 12007KT 15/10 A3017 RMK A01 T01450100  RH  074%=      5-min Rain = 0
KCO2 090935Z 12007KT 15/10 A3017 RMK A01 T01450100  RH  075%=      5-min Rain = 0
KCO2 090936Z 12007KT 14/10 A3017 RMK A01 T01440100  RH  075%=      5-min Rain = 0
KCO2 090937Z 13007KT 14/10 A3017 RMK A01 T01440101  RH  075%=      5-min Rain = 0
KCO2 090938Z 12007KT 14/10 A3017 RMK A01 T01430100  RH  075%=      5-min Rain = 0
KCO2 090939Z 12007KT 14/10 A3017 RMK A01 T01430101  RH  075%=      5-min Rain = 0
KCO2 090940Z 12007KT 14/10 A3017 RMK A01 T01440101  RH  075%=      5-min Rain = 0
KCO2 090941Z 12007KT 14/10 A3017 RMK A01 T01440101  RH  075%=      5-min Rain = 0
KCO2 090942Z 12007KT 14/10 A3017 RMK A01 T01440101  RH  076%=      5-min Rain = 0
KCO2 090943Z 12007KT 14/10 A3017 RMK A01 T01440101  RH  076%=      5-min Rain = 0
KCO2 090944Z 12007KT 14/10 A3017 RMK A01 T01430101  RH  076%=      5-min Rain = 0
KCO2 090945Z 12007KT 14/10 A3018 RMK A01 T01430102  RH  076%=      5-min Rain = 0
KCO2 090946Z 12007KT 14/10 A3018 RMK A01 T01430101  RH  076%=      5-min Rain = 0
KCO2 090947Z 12007KT 14/10 A3018 RMK A01 T01420101  RH  076%=      5-min Rain = 0
KCO2 090948Z 12007KT 14/10 A3018 RMK A01 T01420101  RH  076%=      5-min Rain = 0
KCO2 090949Z 12007KT 14/10 A3018 RMK A01 T01420101  RH  076%=      5-min Rain = 0
KCO2 090950Z 12007KT 14/10 A3018 RMK A01 T01410101  RH  077%=      5-min Rain = 0
KCO2 090951Z 12007KT 14/10 A3018 RMK A01 T01410101  RH  077%=      5-min Rain = 0
KCO2 090952Z 12007KT 14/10 A3017 RMK A01 T01410101  RH  077%=      5-min Rain = 0
KCO2 090953Z 12007KT 14/10 A3017 RMK A01 T01410101  RH  077%=      5-min Rain = 0
KCO2 090954Z 12007KT 14/10 A3017 RMK A01 T01400101  RH  077%=      5-min Rain = 0
KCO2 090955Z 12007KT 14/10 A3018 RMK A01 T01400101  RH  077%=      5-min Rain = 0
KCO2 090956Z 11007KT 14/10 A3018 RMK A01 T01400101  RH  077%=      5-min Rain = 0
KCO2 090957Z 11007KT 14/10 A3018 RMK A01 T01400101  RH  077%=      5-min Rain = 0
KCO2 090958Z 11007KT 14/10 A3018 RMK A01 T01400101  RH  077%=      5-min Rain = 0
KCO2 090959Z 11007KT 14/10 A3018 RMK A01 T01410101  RH  077%=      5-min Rain = 0
KCO2 091000Z 11007KT 14/10 A3018 RMK A01 T01410101  RH  077%=      5-min Rain = 0
KCO2 091001Z 11007KT 14/10 A3018 RMK A01 T01420102  RH  077%=      5-min Rain = 0
KCO2 091002Z 11007KT 14/10 A3018 RMK A01 T01420101  RH  077%=      5-min Rain = 0
KCO2 091003Z 11007KT 14/10 A3018 RMK A01 T01420102  RH  077%=      5-min Rain = 0
KCO2 091004Z 11007KT 14/10 A3018 RMK A01 T01420102  RH  077%=      5-min Rain = 0
KCO2 091005Z 11007KT 14/10 A3018 RMK A01 T01420102  RH  077%=      5-min Rain = 0
KCO2 091006Z 11007KT 14/10 A3018 RMK A01 T01420102  RH  077%=      5-min Rain = 0
KCO2 091007Z 11007KT 14/10 A3018 RMK A01 T01420102  RH  077%=      5-min Rain = 0
KCO2 091008Z 11006KT 14/10 A3018 RMK A01 T01420102  RH  077%=      5-min Rain = 0
KCO2 091009Z 11006KT 14/10 A3018 RMK A01 T01420102  RH  077%=      5-min Rain = 0
KCO2 091010Z 11006KT 14/10 A3018 RMK A01 T01420102  RH  077%=      5-min Rain = 0
KCO2 091011Z 11006KT 14/10 A3018 RMK A01 T01430102  RH  077%=      5-min Rain = 0
KCO2 091012Z 11006KT 14/10 A3018 RMK A01 T01430102  RH  077%=      5-min Rain = 0
KCO2 091013Z 11006KT 14/10 A3018 RMK A01 T01430103  RH  077%=      5-min Rain = 0
KCO2 091014Z 11006KT 14/10 A3018 RMK A01 T01440103  RH  076%=      5-min Rain = 0
KCO2 091015Z 11006KT 15/10 A3018 RMK A01 T01450103  RH  076%=      5-min Rain = 0
KCO2 091016Z 11006KT 15/10 A3018 RMK A01 T01460103  RH  076%=      5-min Rain = 0
KCO2 091017Z 11006KT 15/10 A3018 RMK A01 T01460103  RH  075%=      5-min Rain = 0
KCO2 091018Z 11006KT 15/10 A3018 RMK A01 T01470103  RH  075%=      5-min Rain = 0
KCO2 091019Z 11007KT 15/10 A3018 RMK A01 T01470103  RH  075%=      5-min Rain = 0
KCO2 091020Z 11007KT 15/10 A3018 RMK A01 T01460103  RH  075%=      5-min Rain = 0
KCO2 091021Z 11006KT 15/10 A3018 RMK A01 T01460103  RH  076%=      5-min Rain = 0
KCO2 091022Z 11006KT 15/10 A3018 RMK A01 T01450103  RH  076%=      5-min Rain = 0
KCO2 091023Z 11006KT 15/10 A3018 RMK A01 T01450103  RH  076%=      5-min Rain = 0
KCO2 091024Z 11006KT 14/10 A3018 RMK A01 T01440103  RH  076%=      5-min Rain = 0
KCO2 091025Z 11006KT 14/10 A3018 RMK A01 T01430102  RH  076%=      5-min Rain = 0
KCO2 091026Z 11006KT 14/10 A3018 RMK A01 T01430103  RH  077%=      5-min Rain = 0
KCO2 091027Z 11006KT 14/10 A3018 RMK A01 T01420103  RH  077%=      5-min Rain = 0
KCO2 091028Z 11007KT 14/10 A3018 RMK A01 T01420102  RH  077%=      5-min Rain = 0
KCO2 091029Z 11007KT 14/10 A3018 RMK A01 T01420103  RH  077%=      5-min Rain = 0
KCO2 091030Z 11007KT 14/10 A3018 RMK A01 T01420103  RH  077%=      5-min Rain = 0
KCO2 091031Z 11007KT 14/10 A3018 RMK A01 T01420103  RH  077%=      5-min Rain = 0
KCO2 091032Z 11007KT 14/10 A3018 RMK A01 T01430103  RH  077%=      5-min Rain = 0
KCO2 091033Z 11007KT 14/10 A3018 RMK A01 T01430103  RH  077%=      5-min Rain = 0
KCO2 091034Z 11007KT 14/10 A3018 RMK A01 T01440103  RH  077%=      5-min Rain = 0
KCO2 091035Z 11006KT 14/10 A3018 RMK A01 T01440104  RH  076%=      5-min Rain = 0
KCO2 091036Z 11006KT 14/10 A3018 RMK A01 T01440103  RH  076%=      5-min Rain = 0
KCO2 091037Z 10006KT 14/10 A3018 RMK A01 T01440103  RH  076%=      5-min Rain = 0
KCO2 091038Z 10006KT 15/10 A3018 RMK A01 T01450104  RH  076%=      5-min Rain = 0
KCO2 091039Z 10006KT 15/10 A3018 RMK A01 T01450104  RH  076%=      5-min Rain = 0
KCO2 091040Z 10006KT 15/10 A3018 RMK A01 T01450104  RH  076%=      5-min Rain = 0
KCO2 091041Z 10007KT 14/10 A3018 RMK A01 T01430103  RH  076%=      5-min Rain = 0
KCO2 091042Z 10007KT 14/10 A3018 RMK A01 T01430102  RH  077%=      5-min Rain = 0
KCO2 091043Z 10007KT 14/10 A3018 RMK A01 T01410102  RH  077%=      5-min Rain = 0
KCO2 091044Z 10007KT 14/10 A3018 RMK A01 T01400102  RH  077%=      5-min Rain = 0
KCO2 091045Z 10007KT 14/10 A3018 RMK A01 T01390101  RH  078%=      5-min Rain = 0
KCO2 091046Z 10007KT 14/10 A3018 RMK A01 T01390101  RH  078%=      5-min Rain = 0
KCO2 091047Z 10007KT 14/10 A3018 RMK A01 T01380101  RH  078%=      5-min Rain = 0
KCO2 091048Z 10007KT 14/10 A3018 RMK A01 T01380101  RH  078%=      5-min Rain = 0
KCO2 091049Z 10007KT 14/10 A3018 RMK A01 T01380101  RH  079%=      5-min Rain = 0
KCO2 091050Z 10007KT 14/10 A3018 RMK A01 T01370101  RH  079%=      5-min Rain = 0
KCO2 091051Z 10007KT 14/10 A3018 RMK A01 T01370101  RH  079%=      5-min Rain = 0
KCO2 091052Z 09007KT 14/10 A3018 RMK A01 T01370102  RH  079%=      5-min Rain = 0
KCO2 091053Z 09007KT 14/10 A3018 RMK A01 T01360101  RH  079%=      5-min Rain = 0
KCO2 091054Z 09007KT 14/10 A3018 RMK A01 T01360101  RH  080%=      5-min Rain = 0
KCO2 091055Z 09007KT 14/10 A3018 RMK A01 T01360102  RH  080%=      5-min Rain = 0
KCO2 091056Z 09007KT 14/10 A3019 RMK A01 T01360102  RH  080%=      5-min Rain = 0
KCO2 091057Z 09007KT 14/10 A3019 RMK A01 T01350102  RH  080%=      5-min Rain = 0
KCO2 091058Z 09007KT 14/10 A3019 RMK A01 T01350101  RH  080%=      5-min Rain = 0
KCO2 091059Z 09007KT 13/10 A3019 RMK A01 T01340102  RH  081%=      5-min Rain = 0
KCO2 091100Z 08007KT 13/10 A3019 RMK A01 T01340102  RH  081%=      5-min Rain = 0
KCO2 091101Z 08007KT 13/10 A3019 RMK A01 T01330101  RH  081%=      5-min Rain = 0
KCO2 091102Z 08007KT 13/10 A3019 RMK A01 T01330102  RH  081%=      5-min Rain = 0
KCO2 091103Z 09007KT 13/10 A3019 RMK A01 T01330102  RH  081%=      5-min Rain = 0
KCO2 091104Z 09007KT 13/10 A3019 RMK A01 T01320102  RH  082%=      5-min Rain = 0
KCO2 091105Z 09007KT 13/10 A3019 RMK A01 T01330102  RH  082%=      5-min Rain = 0
KCO2 091106Z 09007KT 13/10 A3019 RMK A01 T01330102  RH  082%=      5-min Rain = 0
KCO2 091107Z 09007KT 13/10 A3019 RMK A01 T01320102  RH  082%=      5-min Rain = 0
KCO2 091108Z 09007KT 13/10 A3019 RMK A01 T01320102  RH  082%=      5-min Rain = 0
KCO2 091109Z 09007KT 13/10 A3019 RMK A01 T01330102  RH  082%=      5-min Rain = 0
KCO2 091110Z 09007KT 13/10 A3019 RMK A01 T01330102  RH  082%=      5-min Rain = 0
KCO2 091111Z 09007KT 13/10 A3019 RMK A01 T01330102  RH  082%=      5-min Rain = 0
KCO2 091112Z 09007KT 13/10 A3019 RMK A01 T01330102  RH  082%=      5-min Rain = 0
KCO2 091113Z 09007KT 13/10 A3019 RMK A01 T01330102  RH  082%=      5-min Rain = 0
KCO2 091114Z 09007KT 13/10 A3019 RMK A01 T01330102  RH  082%=      5-min Rain = 0
KCO2 091115Z 09007KT 13/10 A3019 RMK A01 T01330102  RH  082%=      5-min Rain = 0
KCO2 091116Z 09007KT 13/10 A3019 RMK A01 T01340103  RH  082%=      5-min Rain = 0
KCO2 091117Z 09007KT 13/10 A3019 RMK A01 T01330103  RH  082%=      5-min Rain = 0
KCO2 091118Z 09007KT 13/10 A3019 RMK A01 T01330102  RH  082%=      5-min Rain = 0
KCO2 091119Z 09007KT 13/10 A3019 RMK A01 T01340103  RH  081%=      5-min Rain = 0
KCO2 091120Z 09007KT 13/10 A3019 RMK A01 T01340103  RH  081%=      5-min Rain = 0
KCO2 091121Z 10007KT 13/10 A3019 RMK A01 T01340103  RH  081%=      5-min Rain = 0
KCO2 091122Z 10007KT 14/10 A3019 RMK A01 T01350103  RH  081%=      5-min Rain = 0
KCO2 091123Z 10007KT 14/10 A3019 RMK A01 T01350104  RH  081%=      5-min Rain = 0
KCO2 091124Z 10007KT 14/10 A3019 RMK A01 T01350103  RH  081%=      5-min Rain = 0
KCO2 091125Z 10007KT 14/10 A3019 RMK A01 T01350103  RH  081%=      5-min Rain = 0
KCO2 091126Z 10007KT 14/10 A3019 RMK A01 T01350103  RH  081%=      5-min Rain = 0
KCO2 091127Z 10007KT 14/10 A3019 RMK A01 T01350103  RH  081%=      5-min Rain = 0
KCO2 091128Z 10007KT 14/10 A3019 RMK A01 T01350103  RH  081%=      5-min Rain = 0
KCO2 091129Z 10007KT 14/10 A3019 RMK A01 T01350103  RH  081%=      5-min Rain = 0
KCO2 091130Z 10007KT 14/10 A3019 RMK A01 T01360103  RH  081%=      5-min Rain = 0
KCO2 091131Z 10007KT 14/10 A3019 RMK A01 T01360104  RH  081%=      5-min Rain = 0
KCO2 091132Z 10007KT 14/10 A3019 RMK A01 T01360103  RH  081%=      5-min Rain = 0
KCO2 091133Z 10007KT 14/10 A3019 RMK A01 T01360103  RH  081%=      5-min Rain = 0
KCO2 091134Z 10007KT 14/10 A3019 RMK A01 T01360103  RH  081%=      5-min Rain = 0
KCO2 091135Z 10007KT 14/10 A3019 RMK A01 T01360104  RH  081%=      5-min Rain = 0
KCO2 091136Z 10007KT 14/10 A3019 RMK A01 T01350103  RH  081%=      5-min Rain = 0
KCO2 091137Z 10007KT 14/10 A3019 RMK A01 T01350103  RH  081%=      5-min Rain = 0
KCO2 091138Z 11007KT 13/10 A3019 RMK A01 T01340103  RH  082%=      5-min Rain = 0
KCO2 091139Z 11007KT 13/10 A3019 RMK A01 T01330103  RH  082%=      5-min Rain = 0
KCO2 091140Z 11007KT 13/10 A3019 RMK A01 T01320103  RH  082%=      5-min Rain = 0
KCO2 091141Z 11008KT 13/10 A3019 RMK A01 T01320103  RH  082%=      5-min Rain = 0
KCO2 091142Z 11008KT 13/10 A3019 RMK A01 T01320103  RH  083%=      5-min Rain = 0
KCO2 091143Z 11008KT 13/10 A3019 RMK A01 T01320103  RH  083%=      5-min Rain = 0
KCO2 091144Z 11007KT 13/10 A3019 RMK A01 T01330103  RH  083%=      5-min Rain = 0
KCO2 091145Z 11007KT 13/10 A3019 RMK A01 T01330104  RH  082%=      5-min Rain = 0
KCO2 091146Z 11007KT 13/10 A3019 RMK A01 T01330104  RH  082%=      5-min Rain = 0
KCO2 091147Z 11007KT 13/10 A302 RMK A01 T01340104  RH  082%=      5-min Rain = 0
KCO2 091148Z 11007KT 13/10 A302 RMK A01 T01340104  RH  082%=      5-min Rain = 0
KCO2 091149Z 11007KT 13/10 A302 RMK A01 T01330104  RH  082%=      5-min Rain = 0
KCO2 091150Z 11007KT 13/10 A302 RMK A01 T01340104  RH  082%=      5-min Rain = 0
KCO2 091151Z 11007KT 13/10 A302 RMK A01 T01330104  RH  082%=      5-min Rain = 0
KCO2 091152Z 11007KT 13/10 A302 RMK A01 T01320103  RH  082%=      5-min Rain = 0
KCO2 091153Z 11007KT 13/10 A302 RMK A01 T01320103  RH  083%=      5-min Rain = 0
KCO2 091154Z 11007KT 13/10 A302 RMK A01 T01320103  RH  083%=      5-min Rain = 0
KCO2 091155Z 11007KT 13/10 A302 RMK A01 T01320103  RH  083%=      5-min Rain = 0
KCO2 091156Z 10007KT 13/10 A302 RMK A01 T01320103  RH  083%=      5-min Rain = 0
KCO2 091157Z 11007KT 13/10 A302 RMK A01 T01320104  RH  083%=      5-min Rain = 0
KCO2 091158Z 10007KT 13/10 A302 RMK A01 T01320103  RH  083%=      5-min Rain = 0
KCO2 091159Z 10007KT 13/10 A302 RMK A01 T01330104  RH  082%=      5-min Rain = 0
KCO2 091200Z 11007KT 13/10 A302 RMK A01 T01330104  RH  082%=      5-min Rain = 0
KCO2 091201Z 10007KT 13/10 A302 RMK A01 T01330104  RH  082%=      5-min Rain = 0
KCO2 091202Z 10007KT 13/10 A302 RMK A01 T01330104  RH  082%=      5-min Rain = 0
KCO2 091203Z 10007KT 13/10 A302 RMK A01 T01340104  RH  082%=      5-min Rain = 0
KCO2 091204Z 10007KT 13/10 A302 RMK A01 T01340104  RH  082%=      5-min Rain = 0
KCO2 091205Z 10007KT 14/10 A302 RMK A01 T01350104  RH  082%=      5-min Rain = 0
KCO2 091206Z 10007KT 14/10 A302 RMK A01 T01350104  RH  082%=      5-min Rain = 0
KCO2 091207Z 10007KT 14/10 A302 RMK A01 T01350104  RH  082%=      5-min Rain = 0
KCO2 091208Z 10007KT 13/10 A302 RMK A01 T01340104  RH  082%=      5-min Rain = 0
KCO2 091209Z 10007KT 13/11 A302 RMK A01 T01340105  RH  082%=      5-min Rain = 0
KCO2 091210Z 10007KT 13/11 A302 RMK A01 T01340105  RH  082%=      5-min Rain = 0
KCO2 091211Z 10006KT 13/11 A302 RMK A01 T01340105  RH  082%=      5-min Rain = 0
KCO2 091212Z 10007KT 13/11 A302 RMK A01 T01340105  RH  082%=      5-min Rain = 0
KCO2 091213Z 10007KT 13/11 A302 RMK A01 T01340105  RH  082%=      5-min Rain = 0
KCO2 091214Z 10007KT 13/10 A302 RMK A01 T01330104  RH  083%=      5-min Rain = 0
KCO2 091215Z 10006KT 13/10 A302 RMK A01 T01330104  RH  083%=      5-min Rain = 0
KCO2 091216Z 10007KT 13/10 A302 RMK A01 T01330104  RH  083%=      5-min Rain = 0
KCO2 091217Z 10007KT 13/10 A302 RMK A01 T01320104  RH  083%=      5-min Rain = 0
KCO2 091218Z 10007KT 13/10 A302 RMK A01 T01320104  RH  083%=      5-min Rain = 0
KCO2 091219Z 09007KT 13/10 A302 RMK A01 T01320104  RH  083%=      5-min Rain = 0
KCO2 091220Z 09006KT 13/10 A302 RMK A01 T01320104  RH  083%=      5-min Rain = 0
KCO2 091221Z 09007KT 13/10 A302 RMK A01 T01320104  RH  083%=      5-min Rain = 0
KCO2 091222Z 09007KT 13/10 A302 RMK A01 T01320104  RH  083%=      5-min Rain = 0
KCO2 091223Z 09007KT 13/10 A302 RMK A01 T01310104  RH  083%=      5-min Rain = 0
KCO2 091224Z 09007KT 13/10 A302 RMK A01 T01310104  RH  084%=      5-min Rain = 0
KCO2 091225Z 09007KT 13/10 A302 RMK A01 T01300103  RH  084%=      5-min Rain = 0
KCO2 091226Z 09007KT 13/10 A302 RMK A01 T01300103  RH  084%=      5-min Rain = 0
KCO2 091227Z 09007KT 13/10 A302 RMK A01 T01300103  RH  084%=      5-min Rain = 0
KCO2 091228Z 09007KT 13/10 A302 RMK A01 T01290103  RH  084%=      5-min Rain = 0
KCO2 091229Z 09007KT 13/10 A302 RMK A01 T01290103  RH  084%=      5-min Rain = 0
KCO2 091230Z 09007KT 13/10 A302 RMK A01 T01290104  RH  084%=      5-min Rain = 0
KCO2 091231Z 09006KT 13/10 A302 RMK A01 T01290104  RH  084%=      5-min Rain = 0
KCO2 091232Z 09007KT 13/10 A302 RMK A01 T01290104  RH  085%=      5-min Rain = 0
KCO2 091233Z 09006KT 13/10 A302 RMK A01 T01290104  RH  084%=      5-min Rain = 0
KCO2 091234Z 09006KT 13/10 A302 RMK A01 T01290104  RH  084%=      5-min Rain = 0
KCO2 091235Z 09007KT 13/10 A302 RMK A01 T01300104  RH  084%=      5-min Rain = 0
KCO2 091236Z 09007KT 13/10 A302 RMK A01 T01310104  RH  084%=      5-min Rain = 0
KCO2 091237Z 09007KT 13/10 A302 RMK A01 T01310104  RH  084%=      5-min Rain = 0
KCO2 091238Z 09007KT 13/11 A302 RMK A01 T01320105  RH  084%=      5-min Rain = 0
KCO2 091239Z 09006KT 13/10 A302 RMK A01 T01320104  RH  083%=      5-min Rain = 0
KCO2 091240Z 09006KT 13/11 A3021 RMK A01 T01320105  RH  083%=      5-min Rain = 0
KCO2 091241Z 10006KT 13/11 A3021 RMK A01 T01330105  RH  083%=      5-min Rain = 0
KCO2 091242Z 10006KT 13/11 A3021 RMK A01 T01330105  RH  083%=      5-min Rain = 0
KCO2 091243Z 10006KT 13/11 A3021 RMK A01 T01340106  RH  083%=      5-min Rain = 0
KCO2 091244Z 10006KT 14/11 A3021 RMK A01 T01350106  RH  083%=      5-min Rain = 0
KCO2 091245Z 10006KT 14/11 A3021 RMK A01 T01360106  RH  082%=      5-min Rain = 0
KCO2 091246Z 10006KT 14/11 A3021 RMK A01 T01360107  RH  082%=      5-min Rain = 0
KCO2 091247Z 10006KT 14/11 A3021 RMK A01 T01360106  RH  082%=      5-min Rain = 0
KCO2 091248Z 11006KT 14/11 A3021 RMK A01 T01360106  RH  082%=      5-min Rain = 0
KCO2 091249Z 10006KT 14/11 A3021 RMK A01 T01370107  RH  082%=      5-min Rain = 0
KCO2 091250Z 10006KT 14/11 A3021 RMK A01 T01370107  RH  082%=      5-min Rain = 0
KCO2 091251Z 10006KT 14/11 A3021 RMK A01 T01370107  RH  082%=      5-min Rain = 0
KCO2 091252Z 10006KT 14/11 A3021 RMK A01 T01370107  RH  082%=      5-min Rain = 0
KCO2 091253Z 11006KT 14/11 A3021 RMK A01 T01380107  RH  082%=      5-min Rain = 0
KCO2 091254Z 11006KT 14/11 A3021 RMK A01 T01380108  RH  082%=      5-min Rain = 0
KCO2 091255Z 11006KT 14/11 A3021 RMK A01 T01390108  RH  082%=      5-min Rain = 0
KCO2 091256Z 10005KT 14/11 A3021 RMK A01 T01400108  RH  081%=      5-min Rain = 0
KCO2 091257Z 10005KT 14/11 A3021 RMK A01 T01400108  RH  081%=      5-min Rain = 0
KCO2 091258Z 10005KT 14/11 A3021 RMK A01 T01410109  RH  081%=      5-min Rain = 0
KCO2 091259Z 10005KT 14/11 A3021 RMK A01 T01410109  RH  081%=      5-min Rain = 0
KCO2 091300Z 10005KT 14/11 A3021 RMK A01 T01420109  RH  081%=      5-min Rain = 0
KCO2 091301Z 10005KT 14/11 A3021 RMK A01 T01430109  RH  080%=      5-min Rain = 0
KCO2 091302Z 10005KT 14/11 A3021 RMK A01 T01430110  RH  080%=      5-min Rain = 0
KCO2 091303Z 10005KT 14/11 A3021 RMK A01 T01430110  RH  080%=      5-min Rain = 0
KCO2 091304Z 10006KT 14/11 A3021 RMK A01 T01440110  RH  080%=      5-min Rain = 0
KCO2 091305Z 10005KT 14/11 A3021 RMK A01 T01440110  RH  080%=      5-min Rain = 0
KCO2 091306Z 10006KT 15/11 A3021 RMK A01 T01450111  RH  080%=      5-min Rain = 0
KCO2 091307Z 10006KT 15/11 A3021 RMK A01 T01460111  RH  080%=      5-min Rain = 0
KCO2 091308Z 10006KT 15/11 A3021 RMK A01 T01470111  RH  079%=      5-min Rain = 0
KCO2 091309Z 10006KT 15/11 A3022 RMK A01 T01470111  RH  079%=      5-min Rain = 0
KCO2 091310Z 10006KT 15/11 A3022 RMK A01 T01480112  RH  079%=      5-min Rain = 0
KCO2 091311Z 10005KT 15/11 A3022 RMK A01 T01490112  RH  079%=      5-min Rain = 0
KCO2 091312Z 10005KT 15/11 A3022 RMK A01 T01490112  RH  078%=      5-min Rain = 0
KCO2 091313Z 10005KT 15/11 A3022 RMK A01 T01500112  RH  078%=      5-min Rain = 0
KCO2 091314Z 11004KT 15/11 A3022 RMK A01 T01500113  RH  078%=      5-min Rain = 0
KCO2 091315Z 11004KT 15/11 A3022 RMK A01 T01510113  RH  078%=      5-min Rain = 0
KCO2 091316Z 11004KT 15/11 A3022 RMK A01 T01520114  RH  078%=      5-min Rain = 0
KCO2 091317Z 12004KT 15/11 A3022 RMK A01 T01520114  RH  078%=      5-min Rain = 0
KCO2 091318Z 12004KT 15/11 A3022 RMK A01 T01530114  RH  077%=      5-min Rain = 0
KCO2 091319Z 12004KT 15/11 A3022 RMK A01 T01540114  RH  077%=      5-min Rain = 0
KCO2 091320Z 12004KT 15/12 A3022 RMK A01 T01540115  RH  077%=      5-min Rain = 0
KCO2 091321Z 12005KT 16/11 A3022 RMK A01 T01550114  RH  076%=      5-min Rain = 0
KCO2 091322Z 12004KT 16/11 A3022 RMK A01 T01560114  RH  076%=      5-min Rain = 0
KCO2 091323Z 12005KT 16/11 A3022 RMK A01 T01570114  RH  076%=      5-min Rain = 0
KCO2 091324Z 13005KT 16/11 A3022 RMK A01 T01570114  RH  075%=      5-min Rain = 0
KCO2 091325Z 13004KT 16/12 A3022 RMK A01 T01580115  RH  075%=      5-min Rain = 0
KCO2 091326Z 13004KT 16/12 A3022 RMK A01 T01590115  RH  075%=      5-min Rain = 0
KCO2 091327Z 14004KT 16/12 A3022 RMK A01 T01600116  RH  075%=      5-min Rain = 0
KCO2 091328Z 14004KT 16/12 A3022 RMK A01 T01610116  RH  074%=      5-min Rain = 0
KCO2 091329Z 14004KT 16/12 A3022 RMK A01 T01620117  RH  074%=      5-min Rain = 0
KCO2 091330Z 15003KT 16/12 A3023 RMK A01 T01630116  RH  073%=      5-min Rain = 0
KCO2 091331Z 15004KT 16/12 A3023 RMK A01 T01640116  RH  073%=      5-min Rain = 0
KCO2 091332Z 15005KT 17/12 A3023 RMK A01 T01650116  RH  073%=      5-min Rain = 0
KCO2 091333Z 15005KT 17/12 A3023 RMK A01 T01650115  RH  072%=      5-min Rain = 0
KCO2 091334Z 15004KT 17/12 A3023 RMK A01 T01660115  RH  072%=      5-min Rain = 0
KCO2 091335Z 14005KT 17/12 A3023 RMK A01 T01670116  RH  072%=      5-min Rain = 0
KCO2 091336Z 14005KT 17/12 A3023 RMK A01 T01670116  RH  072%=      5-min Rain = 0
KCO2 091337Z 15004KT 17/12 A3023 RMK A01 T01680117  RH  072%=      5-min Rain = 0
KCO2 091338Z 15004KT 17/12 A3023 RMK A01 T01700119  RH  072%=      5-min Rain = 0
KCO2 091339Z 14005KT 17/12 A3023 RMK A01 T01710118  RH  071%=      5-min Rain = 0
KCO2 091340Z 14004KT 17/12 A3023 RMK A01 T01720119  RH  071%=      5-min Rain = 0
KCO2 091341Z 14006KT 17/12 A3023 RMK A01 T01720118  RH  071%=      5-min Rain = 0
KCO2 091342Z 14005KT 17/12 A3023 RMK A01 T01730118  RH  070%=      5-min Rain = 0
KCO2 091343Z 14006KT 17/12 A3023 RMK A01 T01730118  RH  070%=      5-min Rain = 0
KCO2 091344Z 13006KT 17/12 A3023 RMK A01 T01730117  RH  070%=      5-min Rain = 0
KCO2 091345Z 13006KT 17/12 A3023 RMK A01 T01740119  RH  070%=      5-min Rain = 0
KCO2 091346Z 14006KT 18/12 A3023 RMK A01 T01750118  RH  069%=      5-min Rain = 0
KCO2 091347Z 14005KT 18/12 A3023 RMK A01 T01760118  RH  069%=      5-min Rain = 0
KCO2 091348Z 15004KT 18/12 A3023 RMK A01 T01770119  RH  069%=      5-min Rain = 0
KCO2 091349Z 15005KT 18/12 A3023 RMK A01 T01780119  RH  069%=      5-min Rain = 0
KCO2 091350Z 16006KT 18/12 A3023 RMK A01 T01780119  RH  068%=      5-min Rain = 0
KCO2 091351Z 15007KT 18/12 A3023 RMK A01 T01790118  RH  067%=      5-min Rain = 0
KCO2 091352Z 16006KT 18/12 A3023 RMK A01 T01790118  RH  067%=      5-min Rain = 0
KCO2 091353Z 17006KT 18/12 A3023 RMK A01 T01800120  RH  068%=      5-min Rain = 0
KCO2 091354Z 15007KT 18/12 A3023 RMK A01 T01810119  RH  067%=      5-min Rain = 0
KCO2 091355Z 16006KT 18/12 A3023 RMK A01 T01820119  RH  067%=      5-min Rain = 0
KCO2 091356Z 16007KT 18/12 A3023 RMK A01 T01820119  RH  067%=      5-min Rain = 0
KCO2 091357Z 16007KT 18/12 A3023 RMK A01 T01830118  RH  066%=      5-min Rain = 0
KCO2 091358Z 15008KT 18/12 A3023 RMK A01 T01820118  RH  066%=      5-min Rain = 0
KCO2 091359Z 16008KT 18/12 A3023 RMK A01 T01820118  RH  066%=      5-min Rain = 0
KCO2 091400Z 16007KT 18/12 A3023 RMK A01 T01830118  RH  066%=      5-min Rain = 0
KCO2 091401Z 16007KT 18/12 A3024 RMK A01 T01830119  RH  066%=      5-min Rain = 0
KCO2 091402Z 16007KT 18/12 A3024 RMK A01 T01840119  RH  066%=      5-min Rain = 0
KCO2 091403Z 16007KT 19/12 A3024 RMK A01 T01850119  RH  066%=      5-min Rain = 0
KCO2 091404Z 17006KT 19/12 A3024 RMK A01 T01860121  RH  066%=      5-min Rain = 0
KCO2 091405Z 17007KT 19/12 A3024 RMK A01 T01870120  RH  065%=      5-min Rain = 0
KCO2 091406Z 18006KT 19/12 A3024 RMK A01 T01880121  RH  065%=      5-min Rain = 0
KCO2 091407Z 18007KT 19/12 A3024 RMK A01 T01880121  RH  065%=      5-min Rain = 0
KCO2 091408Z 16005KT 19/12 A3024 RMK A01 T01910123  RH  065%=      5-min Rain = 0
KCO2 091409Z 15007KT 19/12 A3024 RMK A01 T01920123  RH  064%=      5-min Rain = 0
KCO2 091410Z 17006KT 19/12 A3024 RMK A01 T01930122  RH  063%=      5-min Rain = 0
KCO2 091411Z 16006KT 19/12 A3024 RMK A01 T01940122  RH  063%=      5-min Rain = 0
KCO2 091412Z 17008KT 20/12 A3024 RMK A01 T01950122  RH  063%=      5-min Rain = 0
KCO2 091413Z 17008KT 20/12 A3024 RMK A01 T01950120  RH  062%=      5-min Rain = 0
KCO2 091414Z 16007KT 20/12 A3024 RMK A01 T01950122  RH  062%=      5-min Rain = 0
KCO2 091415Z 16006KT 20/12 A3024 RMK A01 T01960123  RH  063%=      5-min Rain = 0
KCO2 091416Z 15008KT 20/12 A3024 RMK A01 T01970123  RH  062%=      5-min Rain = 0
KCO2 091417Z 16006KT 20/12 A3024 RMK A01 T01980123  RH  062%=      5-min Rain = 0
KCO2 091418Z 16008KT 20/12 A3024 RMK A01 T01990124  RH  062%=      5-min Rain = 0
KCO2 091419Z 17008KT 20/12 A3024 RMK A01 T02000123  RH  061%=      5-min Rain = 0
KCO2 091420Z 16008KT 20/12 A3024 RMK A01 T02000122  RH  061%=      5-min Rain = 0
KCO2 091421Z 17006KT 20/12 A3024 RMK A01 T02000123  RH  061%=      5-min Rain = 0
KCO2 091422Z 16006KT 20/12 A3024 RMK A01 T02010124  RH  061%=      5-min Rain = 0
KCO2 091423Z 16004KT 20/13 A3024 RMK A01 T02020125  RH  061%=      5-min Rain = 0
KCO2 091424Z 17008KT 20/13 A3024 RMK A01 T02030125  RH  061%=      5-min Rain = 0
KCO2 091425Z 16010KT 21/12 A3024 RMK A01 T02050123  RH  059%=      5-min Rain = 0
KCO2 091426Z 16011KT 21/12 A3024 RMK A01 T02050122  RH  059%=      5-min Rain = 0
KCO2 091427Z 16010KT 20/12 A3024 RMK A01 T02040122  RH  059%=      5-min Rain = 0
KCO2 091428Z 16011KT 20/12 A3024 RMK A01 T02040122  RH  059%=      5-min Rain = 0
KCO2 091429Z 16010KT 20/12 A3024 RMK A01 T02040121  RH  059%=      5-min Rain = 0
KCO2 091430Z 17010KT 20/12 A3024 RMK A01 T02040122  RH  059%=      5-min Rain = 0
KCO2 091431Z 16012KT 20/12 A3024 RMK A01 T02040121  RH  059%=      5-min Rain = 0
KCO2 091432Z 17013KT 21/12 A3024 RMK A01 T02050121  RH  059%=      5-min Rain = 0
KCO2 091433Z 16012KT 21/12 A3024 RMK A01 T02050120  RH  058%=      5-min Rain = 0
KCO2 091434Z 16010KT 21/12 A3024 RMK A01 T02050121  RH  059%=      5-min Rain = 0
KCO2 091435Z 16010KT 21/12 A3024 RMK A01 T02060122  RH  059%=      5-min Rain = 0
KCO2 091436Z 16011KT 21/12 A3024 RMK A01 T02060121  RH  058%=      5-min Rain = 0
KCO2 091437Z 16011KT 21/12 A3024 RMK A01 T02060121  RH  058%=      5-min Rain = 0
KCO2 091438Z 16011KT 21/12 A3024 RMK A01 T02050120  RH  058%=      5-min Rain = 0
KCO2 091439Z 16010KT 21/12 A3024 RMK A01 T02050122  RH  059%=      5-min Rain = 0
KCO2 091440Z 15010KT 21/12 A3024 RMK A01 T02060123  RH  059%=      5-min Rain = 0
KCO2 091441Z 16011KT 21/12 A3024 RMK A01 T02070122  RH  058%=      5-min Rain = 0
KCO2 091442Z 17011KT 21/12 A3024 RMK A01 T02080121  RH  057%=      5-min Rain = 0
KCO2 091443Z 17011KT 21/12 A3024 RMK A01 T02090122  RH  058%=      5-min Rain = 0
KCO2 091444Z 16013KT 21/12 A3024 RMK A01 T02090120  RH  057%=      5-min Rain = 0
KCO2 091445Z 17013KT 21/12 A3024 RMK A01 T02090121  RH  057%=      5-min Rain = 0
KCO2 091446Z 17015KT 21/12 A3025 RMK A01 T02080120  RH  057%=      5-min Rain = 0
KCO2 091447Z 16014KT 21/12 A3025 RMK A01 T02080119  RH  057%=      5-min Rain = 0
KCO2 091448Z 16014KT 21/12 A3025 RMK A01 T02080119  RH  057%=      5-min Rain = 0
KCO2 091449Z 16012KT 21/12 A3025 RMK A01 T02080120  RH  057%=      5-min Rain = 0
KCO2 091450Z 16012KT 21/12 A3025 RMK A01 T02080121  RH  057%=      5-min Rain = 0
KCO2 091451Z 16010KT 21/12 A3025 RMK A01 T02090121  RH  057%=      5-min Rain = 0
KCO2 091452Z 16008KT 21/12 A3025 RMK A01 T02090123  RH  058%=      5-min Rain = 0
KCO2 091453Z 15009KT 21/12 A3025 RMK A01 T02110124  RH  057%=      5-min Rain = 0
KCO2 091454Z 17008KT 21/12 A3025 RMK A01 T02130124  RH  057%=      5-min Rain = 0
KCO2 091455Z 18009KT 21/12 A3025 RMK A01 T02140124  RH  056%=      5-min Rain = 0
KCO2 091456Z 18008KT 21/12 A3025 RMK A01 T02140124  RH  057%=      5-min Rain = 0
KCO2 091457Z 17010KT 21/12 A3025 RMK A01 T02140124  RH  057%=      5-min Rain = 0
KCO2 091458Z 18009KT 21/12 A3025 RMK A01 T02140122  RH  056%=      5-min Rain = 0
KCO2 091459Z 17008KT 21/13 A3025 RMK A01 T02140125  RH  057%=      5-min Rain = 0
KCO2 091500Z 17010KT 22/12 A3025 RMK A01 T02150123  RH  056%=      5-min Rain = 0
KCO2 091501Z 17010KT 22/12 A3025 RMK A01 T02160123  RH  056%=      5-min Rain = 0
KCO2 091502Z 18012KT 22/12 A3025 RMK A01 T02150122  RH  055%=      5-min Rain = 0
KCO2 091503Z 17012KT 22/12 A3025 RMK A01 T02150121  RH  055%=      5-min Rain = 0
KCO2 091504Z 17013KT 22/12 A3025 RMK A01 T02150121  RH  055%=      5-min Rain = 0
KCO2 091505Z 17011KT 21/12 A3025 RMK A01 T02140121  RH  055%=      5-min Rain = 0
KCO2 091506Z 18010KT 21/12 A3025 RMK A01 T02140121  RH  055%=      5-min Rain = 0
KCO2 091507Z 16010KT 21/12 A3025 RMK A01 T02140122  RH  055%=      5-min Rain = 0
KCO2 091508Z 17011KT 22/12 A3025 RMK A01 T02150120  RH  055%=      5-min Rain = 0
KCO2 091509Z 17012KT 21/12 A3025 RMK A01 T02140120  RH  055%=      5-min Rain = 0
KCO2 091510Z 16012KT 21/12 A3025 RMK A01 T02130120  RH  055%=      5-min Rain = 0
KCO2 091511Z 15011KT 21/12 A3025 RMK A01 T02130120  RH  055%=      5-min Rain = 0
KCO2 091512Z 15011KT 21/12 A3025 RMK A01 T02140121  RH  055%=      5-min Rain = 0
KCO2 091513Z 16010KT 22/12 A3025 RMK A01 T02150122  RH  055%=      5-min Rain = 0
KCO2 091514Z 16011KT 22/12 A3025 RMK A01 T02160121  RH  055%=      5-min Rain = 0
KCO2 091515Z 14011KT 22/12 A3025 RMK A01 T02170122  RH  054%=      5-min Rain = 0
KCO2 091516Z 15010KT 22/12 A3025 RMK A01 T02170121  RH  054%=      5-min Rain = 0
KCO2 091517Z 16008KT 22/12 A3025 RMK A01 T02170122  RH  055%=      5-min Rain = 0
KCO2 091518Z 18009KT 22/12 A3025 RMK A01 T02180121  RH  054%=      5-min Rain = 0
KCO2 091519Z 18007KT 22/12 A3025 RMK A01 T02180124  RH  055%=      5-min Rain = 0
KCO2 091520Z 19011KT 22/12 A3025 RMK A01 T02190123  RH  054%=      5-min Rain = 0
KCO2 091521Z 17008KT 22/12 A3025 RMK A01 T02200123  RH  054%=      5-min Rain = 0
KCO2 091522Z 18009KT 22/13 A3025 RMK A01 T02220125  RH  054%=      5-min Rain = 0
KCO2 091523Z 15010KT 22/12 A3025 RMK A01 T02240123  RH  053%=      5-min Rain = 0
KCO2 091524Z 15010KT 22/12 A3025 RMK A01 T02230123  RH  053%=      5-min Rain = 0
KCO2 091525Z 17011KT 22/12 A3026 RMK A01 T02230122  RH  053%=      5-min Rain = 0
KCO2 091526Z 17009KT 22/12 A3025 RMK A01 T02210122  RH  053%=      5-min Rain = 0
KCO2 091527Z 16010KT 22/12 A3026 RMK A01 T02230124  RH  054%=      5-min Rain = 0
KCO2 091528Z 15010KT 23/12 A3026 RMK A01 T02260124  RH  053%=      5-min Rain = 0
KCO2 091529Z 16008KT 23/12 A3026 RMK A01 T02270124  RH  052%=      5-min Rain = 0
KCO2 091530Z 15010KT 23/12 A3026 RMK A01 T02270124  RH  052%=      5-min Rain = 0
KCO2 091531Z 15012KT 23/12 A3026 RMK A01 T02270123  RH  052%=      5-min Rain = 0
KCO2 091532Z 15010KT 23/12 A3026 RMK A01 T02260122  RH  052%=      5-min Rain = 0
KCO2 091533Z 15011KT 23/12 A3026 RMK A01 T02250123  RH  052%=      5-min Rain = 0
KCO2 091534Z 15010KT 22/12 A3026 RMK A01 T02240122  RH  052%=      5-min Rain = 0
KCO2 091535Z 17009KT 22/12 A3026 RMK A01 T02230123  RH  053%=      5-min Rain = 0
KCO2 091536Z 17008KT 22/12 A3026 RMK A01 T02240124  RH  053%=      5-min Rain = 0
KCO2 091537Z 15009KT 23/13 A3026 RMK A01 T02270125  RH  053%=      5-min Rain = 0
KCO2 091538Z 17010KT 23/12 A3026 RMK A01 T02280124  RH  052%=      5-min Rain = 0
KCO2 091539Z 17009KT 23/12 A3026 RMK A01 T02280124  RH  052%=      5-min Rain = 0
KCO2 091540Z 15012KT 23/12 A3026 RMK A01 T02280123  RH  052%=      5-min Rain = 0
KCO2 091541Z 15011KT 23/12 A3026 RMK A01 T02280123  RH  051%=      5-min Rain = 0
KCO2 091542Z 15010KT 23/12 A3026 RMK A01 T02270122  RH  052%=      5-min Rain = 0
KCO2 091543Z 14010KT 23/12 A3026 RMK A01 T02260123  RH  052%=      5-min Rain = 0
KCO2 091544Z 15007KT 23/12 A3026 RMK A01 T02260124  RH  053%=      5-min Rain = 0
KCO2 091545Z 17010KT 23/13 A3025 RMK A01 T02280126  RH  053%=      5-min Rain = 0
KCO2 091546Z 16011KT 23/12 A3025 RMK A01 T02310123  RH  051%=      5-min Rain = 0
KCO2 091547Z 16010KT 23/12 A3025 RMK A01 T02310124  RH  051%=      5-min Rain = 0
KCO2 091548Z 17010KT 23/13 A3025 RMK A01 T02320125  RH  051%=      5-min Rain = 0
KCO2 091549Z 18010KT 23/13 A3025 RMK A01 T02340125  RH  050%=      5-min Rain = 0
KCO2 091550Z 18011KT 23/13 A3025 RMK A01 T02340125  RH  050%=      5-min Rain = 0
KCO2 091551Z 16010KT 23/13 A3025 RMK A01 T02340126  RH  051%=      5-min Rain = 0
KCO2 091552Z 16011KT 23/13 A3025 RMK A01 T02340125  RH  050%=      5-min Rain = 0
KCO2 091553Z 16010KT 24/12 A3025 RMK A01 T02350124  RH  050%=      5-min Rain = 0
KCO2 091554Z 17009KT 23/12 A3025 RMK A01 T02340124  RH  050%=      5-min Rain = 0
KCO2 091555Z 17009KT 23/12 A3025 RMK A01 T02340124  RH  050%=      5-min Rain = 0
KCO2 091556Z 15010KT 23/13 A3025 RMK A01 T02340125  RH  050%=      5-min Rain = 0
KCO2 091557Z 16010KT 23/13 A3025 RMK A01 T02340126  RH  050%=      5-min Rain = 0
KCO2 091558Z 17008KT 24/13 A3025 RMK A01 T02360126  RH  050%=      5-min Rain = 0
KCO2 091559Z 16011KT 24/13 A3025 RMK A01 T02380126  RH  050%=      5-min Rain = 0
KCO2 091600Z 15009KT 24/13 A3025 RMK A01 T02380126  RH  049%=      5-min Rain = 0
KCO2 091601Z 15008KT 24/13 A3025 RMK A01 T02390128  RH  050%=      5-min Rain = 0
KCO2 091602Z 15008KT 24/13 A3025 RMK A01 T02410127  RH  049%=      5-min Rain = 0
KCO2 091603Z 16007KT 24/13 A3025 RMK A01 T02430128  RH  049%=      5-min Rain = 0
KCO2 091604Z 18007KT 25/13 A3025 RMK A01 T02450128  RH  048%=      5-min Rain = 0
KCO2 091605Z 19008KT 25/13 A3025 RMK A01 T02460127  RH  047%=      5-min Rain = 0
KCO2 091606Z 17010G15KT 24/13 A3025 RMK A01 T02440126  RH  047%=      5-min Rain = 0
KCO2 091607Z 16010KT 24/12 A3025 RMK A01 T02410124  RH  048%=      5-min Rain = 0
KCO2 091608Z 16008KT 24/13 A3025 RMK A01 T02390125  RH  049%=      5-min Rain = 0
KCO2 091609Z 14011KT 24/13 A3025 RMK A01 T02380125  RH  049%=      5-min Rain = 0
KCO2 091610Z 14011KT 24/13 A3025 RMK A01 T02390126  RH  049%=      5-min Rain = 0
KCO2 091611Z 14009KT 24/12 A3025 RMK A01 T02390124  RH  049%=      5-min Rain = 0
KCO2 091612Z 13010KT 24/13 A3026 RMK A01 T02380125  RH  049%=      5-min Rain = 0
KCO2 091613Z 13012KT 24/13 A3026 RMK A01 T02380126  RH  049%=      5-min Rain = 0
KCO2 091614Z 17009KT 24/13 A3025 RMK A01 T02380125  RH  049%=      5-min Rain = 0
KCO2 091615Z 15009KT 24/12 A3025 RMK A01 T02380124  RH  049%=      5-min Rain = 0
KCO2 091616Z 17010KT 24/13 A3025 RMK A01 T02390126  RH  049%=      5-min Rain = 0
KCO2 091617Z 17011KT 24/13 A3025 RMK A01 T02420126  RH  048%=      5-min Rain = 0
KCO2 091618Z 18010KT 24/13 A3025 RMK A01 T02440125  RH  047%=      5-min Rain = 0
KCO2 091619Z 16010G15KT 24/13 A3025 RMK A01 T02440125  RH  048%=      5-min Rain = 0
KCO2 091620Z 15009KT 24/13 A3025 RMK A01 T02440127  RH  048%=      5-min Rain = 0
KCO2 091621Z 17009KT 25/13 A3025 RMK A01 T02450126  RH  047%=      5-min Rain = 0
KCO2 091622Z 17011KT 25/13 A3025 RMK A01 T02460126  RH  047%=      5-min Rain = 0
KCO2 091623Z 17011KT 25/12 A3025 RMK A01 T02460124  RH  046%=      5-min Rain = 0
KCO2 091624Z 15012KT 24/13 A3025 RMK A01 T02440125  RH  047%=      5-min Rain = 0
KCO2 091625Z 15007KT 24/13 A3025 RMK A01 T02430125  RH  048%=      5-min Rain = 0
KCO2 091626Z 16005KT 24/13 A3025 RMK A01 T02430126  RH  048%=      5-min Rain = 0
KCO2 091627Z 16008KT 24/13 A3025 RMK A01 T02430126  RH  048%=      5-min Rain = 0
KCO2 091628Z 16011KT 25/13 A3025 RMK A01 T02450126  RH  047%=      5-min Rain = 0
KCO2 091629Z 17009KT 25/12 A3025 RMK A01 T02460124  RH  047%=      5-min Rain = 0
KCO2 091630Z 17010KT 25/12 A3025 RMK A01 T02460123  RH  046%=      5-min Rain = 0
KCO2 091631Z 17008KT 25/12 A3025 RMK A01 T02450124  RH  047%=      5-min Rain = 0
KCO2 091632Z 16007G12KT 24/13 A3025 RMK A01 T02440126  RH  048%=      5-min Rain = 0
KCO2 091633Z 16009KT 25/13 A3025 RMK A01 T02470126  RH  047%=      5-min Rain = 0
KCO2 091634Z 14009KT 25/13 A3025 RMK A01 T02490125  RH  046%=      5-min Rain = 0
KCO2 091635Z 16007KT 25/12 A3025 RMK A01 T02470124  RH  046%=      5-min Rain = 0
KCO2 091636Z 14010KT 25/13 A3025 RMK A01 T02450125  RH  047%=      5-min Rain = 0
KCO2 091637Z 13011KT 25/13 A3025 RMK A01 T02460126  RH  047%=      5-min Rain = 0
KCO2 091638Z 15008KT 25/12 A3025 RMK A01 T02480124  RH  046%=      5-min Rain = 0
KCO2 091639Z 15008KT 25/12 A3025 RMK A01 T02480124  RH  046%=      5-min Rain = 0
KCO2 091640Z 13011KT 25/13 A3025 RMK A01 T02480126  RH  047%=      5-min Rain = 0
KCO2 091641Z 13012KT 25/13 A3025 RMK A01 T02500125  RH  046%=      5-min Rain = 0
KCO2 091642Z 12009KT 25/13 A3025 RMK A01 T02490126  RH  046%=      5-min Rain = 0
KCO2 091643Z 12011KT 25/13 A3025 RMK A01 T02500126  RH  046%=      5-min Rain = 0
KCO2 091644Z 14010KT 25/13 A3025 RMK A01 T02510126  RH  046%=      5-min Rain = 0
KCO2 091645Z 14011KT 25/12 A3025 RMK A01 T02510123  RH  045%=      5-min Rain = 0
KCO2 091646Z 13009KT 25/12 A3025 RMK A01 T02480124  RH  046%=      5-min Rain = 0
KCO2 091647Z 14007KT 25/13 A3025 RMK A01 T02490128  RH  047%=      5-min Rain = 0
KCO2 091648Z 15007KT 25/13 A3025 RMK A01 T02540127  RH  045%=      5-min Rain = 0
KCO2 091649Z 14008KT 25/12 A3025 RMK A01 T02540124  RH  044%=      5-min Rain = 0
KCO2 091650Z 15009KT 25/13 A3025 RMK A01 T02530126  RH  045%=      5-min Rain = 0
KCO2 091651Z 14010KT 25/13 A3025 RMK A01 T02540126  RH  045%=      5-min Rain = 0
KCO2 091652Z 15010KT 25/13 A3025 RMK A01 T02540126  RH  045%=      5-min Rain = 0
KCO2 091653Z 16010KT 25/12 A3025 RMK A01 T02540123  RH  044%=      5-min Rain = 0
KCO2 091654Z 16008KT 25/12 A3025 RMK A01 T02530123  RH  044%=      5-min Rain = 0
KCO2 091655Z 16007KT 25/12 A3025 RMK A01 T02530124  RH  045%=      5-min Rain = 0
KCO2 091656Z 17007KT 25/13 A3025 RMK A01 T02540126  RH  045%=      5-min Rain = 0
KCO2 091657Z 16011KT 26/13 A3024 RMK A01 T02550126  RH  045%=      5-min Rain = 0
KCO2 091658Z 15011KT 26/13 A3024 RMK A01 T02560125  RH  044%=      5-min Rain = 0
KCO2 091659Z 15006KT 26/13 A3025 RMK A01 T02550125  RH  044%=      5-min Rain = 0
KCO2 091700Z 18007KT 26/13 A3024 RMK A01 T02560127  RH  045%=      5-min Rain = 0
KCO2 091701Z 15009KT 26/12 A3024 RMK A01 T02570124  RH  044%=      5-min Rain = 0
KCO2 091702Z 17007KT 26/13 A3024 RMK A01 T02560126  RH  044%=      5-min Rain = 0
KCO2 091703Z 17009KT 26/13 A3024 RMK A01 T02580125  RH  044%=      5-min Rain = 0
KCO2 091704Z 18009KT 26/13 A3024 RMK A01 T02570125  RH  044%=      5-min Rain = 0
KCO2 091705Z 18009KT 26/13 A3024 RMK A01 T02570125  RH  044%=      5-min Rain = 0
KCO2 091706Z 17009KT 26/12 A3024 RMK A01 T02560123  RH  044%=      5-min Rain = 0
KCO2 091707Z 17008KT 25/12 A3024 RMK A01 T02540122  RH  044%=      5-min Rain = 0
KCO2 091708Z 17005KT 25/12 A3024 RMK A01 T02510123  RH  045%=      5-min Rain = 0
KCO2 091709Z 18008KT 25/13 A3024 RMK A01 T02530125  RH  045%=      5-min Rain = 0
KCO2 091710Z 16010KT 26/13 A3024 RMK A01 T02570126  RH  044%=      5-min Rain = 0
KCO2 091711Z 14008KT 26/13 A3024 RMK A01 T02580126  RH  044%=      5-min Rain = 0
KCO2 091712Z 17009KT 26/13 A3024 RMK A01 T02580127  RH  044%=      5-min Rain = 0
KCO2 091713Z 17011KT 26/12 A3024 RMK A01 T02610124  RH  043%=      5-min Rain = 0
KCO2 091714Z 17010KT 26/12 A3024 RMK A01 T02600124  RH  043%=      5-min Rain = 0
KCO2 091715Z 17009KT 26/12 A3024 RMK A01 T02590123  RH  043%=      5-min Rain = 0
KCO2 091716Z 17011KT 26/12 A3024 RMK A01 T02590123  RH  043%=      5-min Rain = 0
KCO2 091717Z 16007KT 26/12 A3024 RMK A01 T02590123  RH  043%=      5-min Rain = 0
KCO2 091718Z 15007KT 26/12 A3024 RMK A01 T02600124  RH  043%=      5-min Rain = 0
KCO2 091719Z 16004KT 26/12 A3024 RMK A01 T02590122  RH  042%=      5-min Rain = 0
KCO2 091720Z 16003KT 26/12 A3024 RMK A01 T02580124  RH  043%=      5-min Rain = 0
KCO2 091721Z 13006KT 26/12 A3024 RMK A01 T02590123  RH  043%=      5-min Rain = 0
KCO2 091722Z 12005KT 26/13 A3024 RMK A01 T02610126  RH  043%=      5-min Rain = 0
KCO2 091723Z 16007KT 26/12 A3024 RMK A01 T02610123  RH  042%=      5-min Rain = 0
KCO2 091724Z 18009KT 26/12 A3024 RMK A01 T02600123  RH  043%=      5-min Rain = 0
KCO2 091725Z 17010KT 26/12 A3024 RMK A01 T02610124  RH  042%=      5-min Rain = 0
KCO2 091726Z 15008KT 26/13 A3024 RMK A01 T02640125  RH  042%=      5-min Rain = 0
KCO2 091727Z 15006KT 27/12 A3024 RMK A01 T02650124  RH  042%=      5-min Rain = 0
KCO2 091728Z 14005KT 26/12 A3024 RMK A01 T02620124  RH  042%=      5-min Rain = 0
KCO2 091729Z 12003KT 26/13 A3024 RMK A01 T02620125  RH  043%=      5-min Rain = 0
KCO2 091730Z 13007KT 26/13 A3024 RMK A01 T02640126  RH  042%=      5-min Rain = 0
KCO2 091731Z 13005KT 27/12 A3024 RMK A01 T02660122  RH  041%=      5-min Rain = 0
KCO2 091732Z 15004KT 26/13 A3024 RMK A01 T02640125  RH  042%=      5-min Rain = 0
KCO2 091733Z 14004KT 26/12 A3023 RMK A01 T02640124  RH  042%=      5-min Rain = 0
KCO2 091734Z 12007KT 26/13 A3023 RMK A01 T02640128  RH  043%=      5-min Rain = 0
KCO2 091735Z 13009KT 27/13 A3023 RMK A01 T02660128  RH  042%=      5-min Rain = 0
KCO2 091736Z 11007KT 27/13 A3023 RMK A01 T02680128  RH  042%=      5-min Rain = 0
KCO2 091737Z 11005KT 27/13 A3023 RMK A01 T02680128  RH  042%=      5-min Rain = 0
KCO2 091738Z 11006KT 27/13 A3023 RMK A01 T02670126  RH  042%=      5-min Rain = 0
KCO2 091739Z 12008KT 27/13 A3023 RMK A01 T02650126  RH  042%=      5-min Rain = 0
KCO2 091740Z 13011KT 26/13 A3023 RMK A01 T02640126  RH  042%=      5-min Rain = 0
KCO2 091741Z 14009KT 27/13 A3023 RMK A01 T02650125  RH  042%=      5-min Rain = 0
KCO2 091742Z 16010KT 27/12 A3023 RMK A01 T02660124  RH  041%=      5-min Rain = 0
KCO2 091743Z 16007KT 27/12 A3023 RMK A01 T02660123  RH  041%=      5-min Rain = 0
KCO2 091744Z 16009KT 27/12 A3023 RMK A01 T02660123  RH  041%=      5-min Rain = 0
KCO2 091745Z 16008KT 27/12 A3023 RMK A01 T02680122  RH  040%=      5-min Rain = 0
KCO2 091746Z 15006KT 27/12 A3023 RMK A01 T02710122  RH  040%=      5-min Rain = 0
KCO2 091747Z 16006KT 27/12 A3023 RMK A01 T02710120  RH  039%=      5-min Rain = 0
KCO2 091748Z 18007KT 27/12 A3023 RMK A01 T02710124  RH  040%=      5-min Rain = 0
KCO2 091749Z 17007KT 27/12 A3023 RMK A01 T02710124  RH  040%=      5-min Rain = 0
KCO2 091750Z 15010KT 27/12 A3023 RMK A01 T02730124  RH  040%=      5-min Rain = 0
KCO2 091751Z 15008KT 28/12 A3023 RMK A01 T02750122  RH  039%=      5-min Rain = 0
KCO2 091752Z 14005KT 27/12 A3023 RMK A01 T02720120  RH  039%=      5-min Rain = 0
KCO2 091753Z 12005KT 27/12 A3023 RMK A01 T02700122  RH  040%=      5-min Rain = 0
KCO2 091754Z 09004KT 27/13 A3023 RMK A01 T02700126  RH  041%=      5-min Rain = 0
KCO2 091755Z 06005KT 27/12 A3023 RMK A01 T02680122  RH  040%=      5-min Rain = 0
KCO2 091756Z 14003KT 27/12 A3023 RMK A01 T02650123  RH  041%=      5-min Rain = 0
KCO2 091757Z 14006G11KT 27/13 A3023 RMK A01 T02650125  RH  042%=      5-min Rain = 0
KCO2 091758Z 15009KT 27/12 A3023 RMK A01 T02690122  RH  040%=      5-min Rain = 0
KCO2 091759Z 16009KT 27/12 A3023 RMK A01 T02720122  RH  039%=      5-min Rain = 0
KCO2 091800Z 17007KT 27/12 A3023 RMK A01 T02720120  RH  039%=      5-min Rain = 0
KCO2 091801Z 15008KT 27/12 A3023 RMK A01 T02710119  RH  039%=      5-min Rain = 0
KCO2 091802Z 16005KT 27/12 A3023 RMK A01 T02710119  RH  039%=      5-min Rain = 0
KCO2 091803Z 17004G9KT 27/12 A3022 RMK A01 T02720120  RH  039%=      5-min Rain = 0
KCO2 091804Z 17009KT 27/12 A3022 RMK A01 T02720121  RH  039%=      5-min Rain = 0
KCO2 091805Z 20005KT 27/12 A3022 RMK A01 T02690120  RH  039%=      5-min Rain = 0
KCO2 091806Z 18004KT 27/12 A3022 RMK A01 T02660121  RH  041%=      5-min Rain = 0
KCO2 091807Z 14009KT 27/12 A3022 RMK A01 T02680123  RH  041%=      5-min Rain = 0
KCO2 091808Z 14008KT 27/12 A3022 RMK A01 T02720122  RH  039%=      5-min Rain = 0
KCO2 091809Z 13005KT 28/12 A3022 RMK A01 T02750122  RH  039%=      5-min Rain = 0
KCO2 091810Z 14003KT 28/12 A3022 RMK A01 T02760121  RH  038%=      5-min Rain = 0
KCO2 091811Z 15005KT 28/12 A3022 RMK A01 T02750121  RH  038%=      5-min Rain = 0
KCO2 091812Z 06001KT 27/12 A3022 RMK A01 T02740118  RH  038%=      5-min Rain = 0
KCO2 091813Z 13003KT 27/12 A3022 RMK A01 T02710117  RH  038%=      5-min Rain = 0
KCO2 091814Z 11007KT 27/12 A3022 RMK A01 T02700121  RH  040%=      5-min Rain = 0
KCO2 091815Z 13008KT 27/12 A3022 RMK A01 T02710123  RH  040%=      5-min Rain = 0
KCO2 091816Z 14008KT 28/12 A3022 RMK A01 T02750119  RH  038%=      5-min Rain = 0
KCO2 091817Z 15007KT 28/12 A3022 RMK A01 T02770118  RH  037%=      5-min Rain = 0
KCO2 091818Z 14005KT 28/12 A3022 RMK A01 T02780118  RH  037%=      5-min Rain = 0
KCO2 091819Z 09003KT 28/12 A3022 RMK A01 T02760116  RH  037%=      5-min Rain = 0
KCO2 091820Z 07002KT 27/12 A3022 RMK A01 T02730118  RH  038%=      5-min Rain = 0
KCO2 091821Z 12004KT 27/12 A3022 RMK A01 T02720121  RH  039%=      5-min Rain = 0
KCO2 091822Z 15005KT 27/12 A3022 RMK A01 T02730119  RH  038%=      5-min Rain = 0
KCO2 091823Z 07004KT 28/12 A3022 RMK A01 T02750117  RH  038%=      5-min Rain = 0
KCO2 091824Z 09004KT 27/12 A3022 RMK A01 T02720118  RH  038%=      5-min Rain = 0
KCO2 091825Z 10008KT 27/12 A3022 RMK A01 T02700122  RH  040%=      5-min Rain = 0
KCO2 091826Z 12010KT 27/12 A3022 RMK A01 T02740123  RH  039%=      5-min Rain = 0
KCO2 091827Z 13009KT 28/12 A3021 RMK A01 T02770121  RH  038%=      5-min Rain = 0
KCO2 091828Z 12009KT 28/12 A3022 RMK A01 T02790124  RH  038%=      5-min Rain = 0
KCO2 091829Z 12009KT 28/12 A3022 RMK A01 T02820124  RH  037%=      5-min Rain = 0
KCO2 091830Z 11008KT 28/12 A3022 RMK A01 T02800121  RH  037%=      5-min Rain = 0
KCO2 091831Z 07005KT 28/12 A3021 RMK A01 T02770119  RH  038%=      5-min Rain = 0
KCO2 091832Z 03005KT 27/12 A3021 RMK A01 T02720118  RH  038%=      5-min Rain = 0
KCO2 091833Z 03002KT 27/12 A3021 RMK A01 T02710117  RH  038%=      5-min Rain = 0
KCO2 091834Z 19002KT 27/12 A3021 RMK A01 T02720118  RH  038%=      5-min Rain = 0
KCO2 091835Z 13004KT 28/12 A3021 RMK A01 T02770120  RH  038%=      5-min Rain = 0
KCO2 091836Z 09003KT 28/12 A3021 RMK A01 T02800120  RH  037%=      5-min Rain = 0
KCO2 091837Z 13006KT 28/12 A3021 RMK A01 T02810123  RH  038%=      5-min Rain = 0
KCO2 091838Z 15005KT 28/12 A3021 RMK A01 T02820119  RH  036%=      5-min Rain = 0
KCO2 091839Z 15008KT 28/12 A3021 RMK A01 T02820119  RH  036%=      5-min Rain = 0
KCO2 091840Z 15009KT 28/12 A3021 RMK A01 T02830115  RH  035%=      5-min Rain = 0
KCO2 091841Z 16008KT 28/12 A3021 RMK A01 T02830115  RH  035%=      5-min Rain = 0
KCO2 091842Z 15010KT 28/12 A3021 RMK A01 T02820116  RH  036%=      5-min Rain = 0
KCO2 091843Z 16010KT 28/12 A3021 RMK A01 T02840118  RH  036%=      5-min Rain = 0
KCO2 091844Z 17008KT 28/12 A3021 RMK A01 T02840116  RH  035%=      5-min Rain = 0
KCO2 091845Z 16008KT 28/12 A3021 RMK A01 T02810117  RH  036%=      5-min Rain = 0
KCO2 091846Z 15010KT 28/12 A3021 RMK A01 T02820119  RH  036%=      5-min Rain = 0
KCO2 091847Z 12007KT 28/12 A3021 RMK A01 T02840118  RH  036%=      5-min Rain = 0
KCO2 091848Z 10007KT 28/12 A3021 RMK A01 T02820121  RH  037%=      5-min Rain = 0
KCO2 091849Z 10007KT 28/12 A3021 RMK A01 T02830124  RH  037%=      5-min Rain = 0
KCO2 091850Z 09003KT 28/12 A3021 RMK A01 T02810118  RH  036%=      5-min Rain = 0
KCO2 091851Z 09003KT 28/12 A302 RMK A01 T02790120  RH  037%=      5-min Rain = 0
KCO2 091852Z 10002KT 28/12 A302 RMK A01 T02780121  RH  038%=      5-min Rain = 0
KCO2 091853Z 13005KT 28/12 A302 RMK A01 T02790122  RH  038%=      5-min Rain = 0
KCO2 091854Z 12008KT 28/12 A302 RMK A01 T02840121  RH  036%=      5-min Rain = 0
KCO2 091855Z 11005KT 29/12 A302 RMK A01 T02870118  RH  035%=      5-min Rain = 0
KCO2 091856Z 10008KT 28/12 A302 RMK A01 T02840118  RH  036%=      5-min Rain = 0
KCO2 091857Z 10007KT 28/12 A302 RMK A01 T02840119  RH  036%=      5-min Rain = 0
KCO2 091858Z 09007KT 28/12 A302 RMK A01 T02840119  RH  036%=      5-min Rain = 0
KCO2 091859Z 11006KT 28/12 A302 RMK A01 T02840118  RH  036%=      5-min Rain = 0
KCO2 091900Z 11009KT 28/12 A302 RMK A01 T02830121  RH  037%=      5-min Rain = 0
KCO2 091901Z 10008KT 29/12 A302 RMK A01 T02860120  RH  036%=      5-min Rain = 0
KCO2 091902Z 12006KT 29/12 A302 RMK A01 T02850119  RH  036%=      5-min Rain = 0
KCO2 091903Z 09004KT 28/12 A302 RMK A01 T02840119  RH  036%=      5-min Rain = 0
KCO2 091904Z 06003KT 28/12 A302 RMK A01 T02840117  RH  035%=      5-min Rain = 0
KCO2 091905Z 11003KT 28/12 A302 RMK A01 T02840117  RH  035%=      5-min Rain = 0
KCO2 091906Z 10006KT 28/12 A302 RMK A01 T02830119  RH  036%=      5-min Rain = 0
KCO2 091907Z 10007KT 29/12 A302 RMK A01 T02850120  RH  036%=      5-min Rain = 0
KCO2 091908Z 10008KT 29/11 A302 RMK A01 T02850114  RH  035%=      5-min Rain = 0
KCO2 091909Z 11010KT 28/11 A302 RMK A01 T02840113  RH  035%=      5-min Rain = 0
KCO2 091910Z 10011KT 29/11 A302 RMK A01 T02860114  RH  035%=      5-min Rain = 0
KCO2 091911Z 10010KT 29/11 A302 RMK A01 T02870113  RH  034%=      5-min Rain = 0
KCO2 091912Z 09010KT 29/11 A302 RMK A01 T02860111  RH  034%=      5-min Rain = 0
KCO2 091913Z 10007KT 29/11 A302 RMK A01 T02850109  RH  034%=      5-min Rain = 0
KCO2 091914Z 12009KT 28/11 A3019 RMK A01 T02830112  RH  035%=      5-min Rain = 0
KCO2 091915Z 12007KT 28/11 A3019 RMK A01 T02840113  RH  035%=      5-min Rain = 0
KCO2 091916Z 09005KT 28/11 A3019 RMK A01 T02840112  RH  034%=      5-min Rain = 0
KCO2 091917Z 10003KT 28/11 A3019 RMK A01 T02830111  RH  034%=      5-min Rain = 0
KCO2 091918Z 05004KT 28/12 A3019 RMK A01 T02820116  RH  036%=      5-min Rain = 0
KCO2 091919Z 10003KT 29/12 A3019 RMK A01 T02850115  RH  035%=      5-min Rain = 0
KCO2 091920Z 12008KT 29/12 A3019 RMK A01 T02890115  RH  034%=      5-min Rain = 0
KCO2 091921Z 10004KT 29/11 A3019 RMK A01 T02920111  RH  033%=      5-min Rain = 0
KCO2 091922Z 14008KT 29/11 A3019 RMK A01 T02900111  RH  033%=      5-min Rain = 0
KCO2 091923Z 15009KT 29/11 A3019 RMK A01 T02910109  RH  032%=      5-min Rain = 0
KCO2 091924Z 16009KT 29/11 A3019 RMK A01 T02920108  RH  032%=      5-min Rain = 0
KCO2 091925Z 12008KT 29/11 A3019 RMK A01 T02910111  RH  033%=      5-min Rain = 0
KCO2 091926Z 09007KT 29/11 A3019 RMK A01 T02920109  RH  032%=      5-min Rain = 0
KCO2 091927Z 11005KT 29/11 A3019 RMK A01 T02890107  RH  032%=      5-min Rain = 0
KCO2 091928Z 09004KT 29/11 A3019 RMK A01 T02880111  RH  033%=      5-min Rain = 0
KCO2 091929Z 08004KT 29/11 A3019 RMK A01 T02880109  RH  033%=      5-min Rain = 0
KCO2 091930Z 13003KT 29/11 A3018 RMK A01 T02870110  RH  033%=      5-min Rain = 0
KCO2 091931Z 10007KT 29/11 A3018 RMK A01 T02860112  RH  034%=      5-min Rain = 0
KCO2 091932Z 07007KT 29/11 A3018 RMK A01 T02890111  RH  033%=      5-min Rain = 0
KCO2 091933Z 11010KT 29/11 A3018 RMK A01 T02900108  RH  032%=      5-min Rain = 0
KCO2 091934Z 10011KT 29/10 A3019 RMK A01 T02910103  RH  031%=      5-min Rain = 0
KCO2 091935Z 10011KT 29/10 A3019 RMK A01 T02920103  RH  031%=      5-min Rain = 0
KCO2 091936Z 11008KT 29/10 A3019 RMK A01 T02910103  RH  031%=      5-min Rain = 0
KCO2 091937Z 12007KT 29/10 A3018 RMK A01 T02900102  RH  031%=      5-min Rain = 0
KCO2 091938Z 12005KT 29/10 A3018 RMK A01 T02880102  RH  031%=      5-min Rain = 0
KCO2 091939Z 08008KT 29/11 A3018 RMK A01 T02880111  RH  033%=      5-min Rain = 0
KCO2 091940Z 08008KT 29/11 A3018 RMK A01 T02880110  RH  033%=      5-min Rain = 0
KCO2 091941Z 08006KT 29/11 A3018 RMK A01 T02880113  RH  034%=      5-min Rain = 0
KCO2 091942Z 08005KT 29/11 A3018 RMK A01 T02880112  RH  033%=      5-min Rain = 0
KCO2 091943Z 09007KT 29/11 A3018 RMK A01 T02870110  RH  033%=      5-min Rain = 0
KCO2 091944Z 07007KT 29/11 A3018 RMK A01 T02860105  RH  033%=      5-min Rain = 0
KCO2 091945Z 10006KT 29/10 A3018 RMK A01 T02860102  RH  032%=      5-min Rain = 0
KCO2 091946Z 12002KT 29/10 A3018 RMK A01 T02850102  RH  032%=      5-min Rain = 0
KCO2 091947Z 05002KT 29/10 A3018 RMK A01 T02870101  RH  031%=      5-min Rain = 0
KCO2 091948Z 07004KT 29/10 A3018 RMK A01 T02880101  RH  031%=      5-min Rain = 0
KCO2 091949Z 09006G13KT 29/10 A3018 RMK A01 T02890099  RH  031%=      5-min Rain = 0
KCO2 091950Z 09011KT 29/11 A3018 RMK A01 T02890108  RH  032%=      5-min Rain = 0
KCO2 091951Z 11010KT 29/11 A3018 RMK A01 T02920106  RH  031%=      5-min Rain = 0
KCO2 091952Z 14008KT 30/11 A3017 RMK A01 T02950106  RH  031%=      5-min Rain = 0
KCO2 091953Z 11008KT 30/11 A3018 RMK A01 T03000105  RH  030%=      5-min Rain = 0
KCO2 091954Z 11006KT 30/11 A3017 RMK A01 T02980108  RH  031%=      5-min Rain = 0
KCO2 091955Z 11006KT 30/10 A3017 RMK A01 T02990103  RH  030%=      5-min Rain = 0
KCO2 091956Z 12007KT 30/10 A3017 RMK A01 T02990104  RH  030%=      5-min Rain = 0
KCO2 091957Z 10008KT 30/11 A3017 RMK A01 T02980106  RH  031%=      5-min Rain = 0
KCO2 091958Z 11011KT 30/11 A3017 RMK A01 T02950106  RH  031%=      5-min Rain = 0
KCO2 091959Z 14009KT 30/11 A3017 RMK A01 T02950105  RH  031%=      5-min Rain = 0
KCO2 092000Z 14007KT 30/10 A3017 RMK A01 T02950101  RH  030%=      5-min Rain = 0
KCO2 092001Z 12005KT 30/10 A3017 RMK A01 T02950099  RH  030%=      5-min Rain = 0
KCO2 092002Z 08006KT 29/10 A3017 RMK A01 T02940096  RH  029%=      5-min Rain = 0
KCO2 092003Z 08004KT 29/10 A3017 RMK A01 T02910097  RH  030%=      5-min Rain = 0
KCO2 092004Z 09005KT 29/10 A3017 RMK A01 T02880101  RH  031%=      5-min Rain = 0
KCO2 092005Z 10006KT 29/10 A3017 RMK A01 T02880101  RH  031%=      5-min Rain = 0
KCO2 092006Z 12007G12KT 29/10 A3017 RMK A01 T02890102  RH  031%=      5-min Rain = 0
KCO2 092007Z 11009KT 29/10 A3017 RMK A01 T02930103  RH  031%=      5-min Rain = 0
KCO2 092008Z 09007KT 30/11 A3017 RMK A01 T02950105  RH  031%=      5-min Rain = 0
KCO2 092009Z 10008G13KT 30/10 A3017 RMK A01 T02970101  RH  030%=      5-min Rain = 0
KCO2 092010Z 10009KT 30/10 A3017 RMK A01 T02950101  RH  030%=      5-min Rain = 0
KCO2 092011Z 09008KT 29/10 A3017 RMK A01 T02930100  RH  030%=      5-min Rain = 0
KCO2 092012Z 10008KT 29/10 A3017 RMK A01 T02910104  RH  031%=      5-min Rain = 0
KCO2 092013Z 11007KT 29/10 A3017 RMK A01 T02910104  RH  031%=      5-min Rain = 0
KCO2 092014Z 10007KT 29/11 A3017 RMK A01 T02910105  RH  032%=      5-min Rain = 0
KCO2 092015Z 10006KT 29/11 A3016 RMK A01 T02910108  RH  032%=      5-min Rain = 0
KCO2 092016Z 09005KT 29/11 A3016 RMK A01 T02920106  RH  032%=      5-min Rain = 0
KCO2 092017Z 08008KT 29/11 A3016 RMK A01 T02920105  RH  031%=      5-min Rain = 0
KCO2 092018Z 08006KT 29/10 A3016 RMK A01 T02900099  RH  030%=      5-min Rain = 0
KCO2 092019Z 09008KT 29/10 A3016 RMK A01 T02900103  RH  031%=      5-min Rain = 0
KCO2 092020Z 10005KT 29/10 A3016 RMK A01 T02900097  RH  030%=      5-min Rain = 0
KCO2 092021Z 14006KT 29/10 A3016 RMK A01 T02890099  RH  031%=      5-min Rain = 0
KCO2 092022Z 11012KT 29/11 A3016 RMK A01 T02900105  RH  032%=      5-min Rain = 0
KCO2 092023Z 11009KT 30/11 A3016 RMK A01 T02950107  RH  031%=      5-min Rain = 0
KCO2 092024Z 13008KT 30/11 A3016 RMK A01 T02960106  RH  031%=      5-min Rain = 0
KCO2 092025Z 12006KT 30/11 A3016 RMK A01 T02960105  RH  030%=      5-min Rain = 0
KCO2 092026Z 13005KT 30/11 A3016 RMK A01 T02970106  RH  031%=      5-min Rain = 0
KCO2 092027Z 15007KT 30/10 A3016 RMK A01 T02970101  RH  030%=      5-min Rain = 0
KCO2 092028Z 17006KT 30/10 A3016 RMK A01 T02990097  RH  029%=      5-min Rain = 0
KCO2 092029Z 12005KT 30/10 A3016 RMK A01 T02990099  RH  029%=      5-min Rain = 0
KCO2 092030Z 13009KT 30/11 A3016 RMK A01 T03010106  RH  030%=      5-min Rain = 0
KCO2 092031Z 11008KT 30/10 A3016 RMK A01 T03000103  RH  029%=      5-min Rain = 0
KCO2 092032Z 14008KT 30/11 A3016 RMK A01 T02980105  RH  030%=      5-min Rain = 0
KCO2 092033Z 15009KT 30/10 A3016 RMK A01 T03010101  RH  029%=      5-min Rain = 0
KCO2 092034Z 15010KT 31/10 A3016 RMK A01 T03060102  RH  028%=      5-min Rain = 0
KCO2 092035Z 15008KT 31/10 A3016 RMK A01 T03050102  RH  028%=      5-min Rain = 0
KCO2 092036Z 15004KT 30/10 A3016 RMK A01 T03040097  RH  028%=      5-min Rain = 0
KCO2 092037Z 14007G12KT 30/10 A3016 RMK A01 T03020098  RH  028%=      5-min Rain = 0
KCO2 092038Z 15010KT 30/10 A3016 RMK A01 T03010101  RH  029%=      5-min Rain = 0
KCO2 092039Z 12006KT 30/10 A3016 RMK A01 T03010100  RH  029%=      5-min Rain = 0
KCO2 092040Z 11003KT 30/10 A3015 RMK A01 T02970100  RH  030%=      5-min Rain = 0
KCO2 092041Z 15010KT 30/10 A3015 RMK A01 T02950101  RH  030%=      5-min Rain = 0
KCO2 092042Z 15009KT 30/10 A3015 RMK A01 T02970099  RH  029%=      5-min Rain = 0
KCO2 092043Z 15008KT 30/10 A3015 RMK A01 T03020100  RH  029%=      5-min Rain = 0
KCO2 092044Z 14008G13KT 31/10 A3015 RMK A01 T03060102  RH  028%=      5-min Rain = 0
KCO2 092045Z 13009KT 31/10 A3015 RMK A01 T03050103  RH  029%=      5-min Rain = 0
KCO2 092046Z 14007KT 30/10 A3015 RMK A01 T03010103  RH  029%=      5-min Rain = 0
KCO2 092047Z 12011KT 30/10 A3015 RMK A01 T02990104  RH  030%=      5-min Rain = 0
KCO2 092048Z 12009KT 30/10 A3015 RMK A01 T03000102  RH  029%=      5-min Rain = 0
KCO2 092049Z 11008KT 30/11 A3015 RMK A01 T03000105  RH  030%=      5-min Rain = 0
KCO2 092050Z 11004KT 30/10 A3015 RMK A01 T03000102  RH  029%=      5-min Rain = 0
KCO2 092051Z 13005KT 30/10 A3015 RMK A01 T02990103  RH  030%=      5-min Rain = 0
KCO2 092052Z 12002KT 30/10 A3015 RMK A01 T02980100  RH  029%=      5-min Rain = 0
KCO2 092053Z 13002KT 30/10 A3015 RMK A01 T02970098  RH  029%=      5-min Rain = 0
KCO2 092054Z 11003KT 30/10 A3015 RMK A01 T02960102  RH  030%=      5-min Rain = 0
KCO2 092055Z 10002KT 30/10 A3015 RMK A01 T02950100  RH  030%=      5-min Rain = 0
KCO2 092056Z 16005KT 30/10 A3015 RMK A01 T02950100  RH  030%=      5-min Rain = 0
KCO2 092057Z 15004KT 30/10 A3015 RMK A01 T02960096  RH  029%=      5-min Rain = 0
KCO2 092058Z 07000KT 30/10 A3015 RMK A01 T02950095  RH  029%=      5-min Rain = 0
KCO2 092059Z 14002KT 29/09 A3015 RMK A01 T02940094  RH  029%=      5-min Rain = 0
KCO2 092100Z 13006G13KT 30/10 A3015 RMK A01 T02950101  RH  030%=      5-min Rain = 0
KCO2 092101Z 12011KT 30/10 A3015 RMK A01 T02990101  RH  029%=      5-min Rain = 0
KCO2 092102Z 11010KT 30/10 A3015 RMK A01 T03040104  RH  029%=      5-min Rain = 0
KCO2 092103Z 11009KT 30/10 A3015 RMK A01 T03020101  RH  029%=      5-min Rain = 0
KCO2 092104Z 08008KT 30/10 A3015 RMK A01 T02990103  RH  030%=      5-min Rain = 0
KCO2 092105Z 08004KT 30/10 A3015 RMK A01 T02970101  RH  030%=      5-min Rain = 0
KCO2 092106Z 09007G13KT 30/10 A3015 RMK A01 T02960104  RH  030%=      5-min Rain = 0
KCO2 092107Z 08011KT 30/10 A3015 RMK A01 T02960099  RH  029%=      5-min Rain = 0
KCO2 092108Z 07004KT 30/10 A3015 RMK A01 T02950099  RH  029%=      5-min Rain = 0
KCO2 092109Z 13006KT 30/10 A3015 RMK A01 T02950101  RH  030%=      5-min Rain = 0
KCO2 092110Z 11007KT 30/10 A3015 RMK A01 T02980100  RH  029%=      5-min Rain = 0
KCO2 092111Z 09008KT 30/10 A3015 RMK A01 T02980101  RH  029%=      5-min Rain = 0
KCO2 092112Z 08007KT 30/10 A3015 RMK A01 T02980103  RH  030%=      5-min Rain = 0
KCO2 092113Z 08006KT 30/10 A3014 RMK A01 T02970100  RH  029%=      5-min Rain = 0
KCO2 092114Z 10004KT 30/10 A3014 RMK A01 T02960101  RH  030%=      5-min Rain = 0
KCO2 092115Z 11006KT 30/10 A3014 RMK A01 T02950101  RH  030%=      5-min Rain = 0
KCO2 092116Z 10007KT 30/10 A3014 RMK A01 T02960103  RH  030%=      5-min Rain = 0
KCO2 092117Z 10006KT 30/10 A3014 RMK A01 T02980103  RH  030%=      5-min Rain = 0
KCO2 092118Z 11005KT 30/10 A3014 RMK A01 T02990103  RH  030%=      5-min Rain = 0
KCO2 092119Z 10008KT 30/11 A3014 RMK A01 T02980106  RH  030%=      5-min Rain = 0
KCO2 092120Z 08009KT 30/10 A3014 RMK A01 T03000103  RH  030%=      5-min Rain = 0
KCO2 092121Z 07008KT 30/10 A3014 RMK A01 T02990100  RH  029%=      5-min Rain = 0
KCO2 092122Z 06006KT 30/10 A3014 RMK A01 T02970098  RH  029%=      5-min Rain = 0
KCO2 092123Z 06007KT 30/10 A3014 RMK A01 T02950100  RH  030%=      5-min Rain = 0
KCO2 092124Z 06007KT 30/10 A3014 RMK A01 T02950099  RH  030%=      5-min Rain = 0
KCO2 092125Z 08006KT 29/10 A3014 RMK A01 T02920098  RH  030%=      5-min Rain = 0
KCO2 092126Z 12007KT 29/10 A3014 RMK A01 T02920100  RH  030%=      5-min Rain = 0
KCO2 092127Z 14009KT 29/10 A3014 RMK A01 T02930098  RH  030%=      5-min Rain = 0
KCO2 092128Z 15009G15KT 30/10 A3014 RMK A01 T02960098  RH  029%=      5-min Rain = 0
KCO2 092129Z 13010KT 30/10 A3014 RMK A01 T02990102  RH  029%=      5-min Rain = 0
KCO2 092130Z 14012KT 30/10 A3014 RMK A01 T03020103  RH  029%=      5-min Rain = 0
KCO2 092131Z 14014KT 31/10 A3014 RMK A01 T03050100  RH  028%=      5-min Rain = 0
KCO2 092132Z 15011KT 31/10 A3014 RMK A01 T03050100  RH  028%=      5-min Rain = 0
KCO2 092133Z 15009KT 30/10 A3014 RMK A01 T03030099  RH  028%=      5-min Rain = 0
KCO2 092134Z 13010KT 30/10 A3014 RMK A01 T03010101  RH  029%=      5-min Rain = 0
KCO2 092135Z 12011KT 30/10 A3014 RMK A01 T03000103  RH  029%=      5-min Rain = 0
KCO2 092136Z 14010KT 30/10 A3014 RMK A01 T02990103  RH  030%=      5-min Rain = 0
KCO2 092137Z 13008KT 30/10 A3014 RMK A01 T03010104  RH  030%=      5-min Rain = 0
KCO2 092138Z 14009KT 31/10 A3014 RMK A01 T03050103  RH  029%=      5-min Rain = 0
KCO2 092139Z 14008KT 31/10 A3014 RMK A01 T03050100  RH  028%=      5-min Rain = 0
KCO2 092140Z 14008KT 30/10 A3014 RMK A01 T03040099  RH  028%=      5-min Rain = 0
KCO2 092141Z 15008KT 30/10 A3014 RMK A01 T03020101  RH  029%=      5-min Rain = 0
KCO2 092142Z 15008KT 30/10 A3014 RMK A01 T03020099  RH  029%=      5-min Rain = 0
KCO2 092143Z 16008KT 30/10 A3014 RMK A01 T03010100  RH  029%=      5-min Rain = 0
KCO2 092144Z 18007KT 30/10 A3013 RMK A01 T03010101  RH  029%=      5-min Rain = 0
KCO2 092145Z 11005KT 30/10 A3014 RMK A01 T03020104  RH  029%=      5-min Rain = 0
KCO2 092146Z 08004KT 30/10 A3014 RMK A01 T03030104  RH  029%=      5-min Rain = 0
KCO2 092147Z 09006KT 30/11 A3014 RMK A01 T03020105  RH  030%=      5-min Rain = 0
KCO2 092148Z 09005KT 30/11 A3014 RMK A01 T03020105  RH  030%=      5-min Rain = 0
KCO2 092149Z 08005KT 30/10 A3013 RMK A01 T03020102  RH  029%=      5-min Rain = 0
KCO2 092150Z 09007KT 30/10 A3013 RMK A01 T03010104  RH  030%=      5-min Rain = 0
KCO2 092151Z 08005KT 30/10 A3013 RMK A01 T02990100  RH  029%=      5-min Rain = 0
KCO2 092152Z 06004KT 30/10 A3013 RMK A01 T02970100  RH  029%=      5-min Rain = 0
KCO2 092153Z 09003KT 30/10 A3013 RMK A01 T02960100  RH  030%=      5-min Rain = 0
KCO2 092154Z 10004KT 30/10 A3013 RMK A01 T02960103  RH  030%=      5-min Rain = 0
KCO2 092155Z 14005KT 30/10 A3013 RMK A01 T02980103  RH  030%=      5-min Rain = 0
KCO2 092156Z 13008KT 30/10 A3013 RMK A01 T02990099  RH  029%=      5-min Rain = 0
KCO2 092157Z 12010KT 30/10 A3013 RMK A01 T03010100  RH  029%=      5-min Rain = 0
KCO2 092158Z 13009KT 30/10 A3013 RMK A01 T03010101  RH  029%=      5-min Rain = 0
KCO2 092159Z 13010KT 30/10 A3013 RMK A01 T03010102  RH  029%=      5-min Rain = 0
KCO2 092200Z 15009KT 30/10 A3013 RMK A01 T03020103  RH  029%=      5-min Rain = 0
KCO2 092201Z 14009KT 30/10 A3013 RMK A01 T03020102  RH  029%=      5-min Rain = 0
KCO2 092202Z 13006KT 30/10 A3013 RMK A01 T03040104  RH  029%=      5-min Rain = 0
KCO2 092203Z 10009KT 31/11 A3013 RMK A01 T03060105  RH  029%=      5-min Rain = 0
KCO2 092204Z 10009KT 31/11 A3013 RMK A01 T03050105  RH  029%=      5-min Rain = 0
KCO2 092205Z 09008KT 30/11 A3013 RMK A01 T03020106  RH  030%=      5-min Rain = 0
KCO2 092206Z 10006KT 30/10 A3013 RMK A01 T02980101  RH  029%=      5-min Rain = 0
KCO2 092207Z 10004KT 30/10 A3013 RMK A01 T02950104  RH  030%=      5-min Rain = 0
KCO2 092208Z 12003KT 30/10 A3013 RMK A01 T02950103  RH  030%=      5-min Rain = 0
KCO2 092209Z 18009KT 30/10 A3013 RMK A01 T02960102  RH  030%=      5-min Rain = 0
KCO2 092210Z 18006KT 30/10 A3013 RMK A01 T02980099  RH  029%=      5-min Rain = 0
KCO2 092211Z 16005KT 30/10 A3013 RMK A01 T02970101  RH  030%=      5-min Rain = 0
KCO2 092212Z 13002KT 30/10 A3013 RMK A01 T02970099  RH  029%=      5-min Rain = 0
KCO2 092213Z 09002KT 30/10 A3013 RMK A01 T02970102  RH  030%=      5-min Rain = 0
KCO2 092214Z 15004G9KT 30/10 A3013 RMK A01 T02960101  RH  030%=      5-min Rain = 0
KCO2 092215Z 16011KT 30/10 A3013 RMK A01 T02970104  RH  030%=      5-min Rain = 0
KCO2 092216Z 15011KT 30/10 A3013 RMK A01 T03010103  RH  029%=      5-min Rain = 0
KCO2 092217Z 14009KT 30/10 A3013 RMK A01 T03010103  RH  029%=      5-min Rain = 0
KCO2 092218Z 15008KT 30/10 A3013 RMK A01 T03010103  RH  029%=      5-min Rain = 0
KCO2 092219Z 14010KT 30/10 A3013 RMK A01 T03010103  RH  029%=      5-min Rain = 0
KCO2 092220Z 14008KT 30/10 A3013 RMK A01 T03010104  RH  030%=      5-min Rain = 0
KCO2 092221Z 12005KT 30/10 A3013 RMK A01 T03010104  RH  030%=      5-min Rain = 0
KCO2 092222Z 13007KT 30/11 A3013 RMK A01 T03010109  RH  031%=      5-min Rain = 0
KCO2 092223Z 13006KT 30/11 A3013 RMK A01 T03020105  RH  030%=      5-min Rain = 0
KCO2 092224Z 16008KT 30/11 A3013 RMK A01 T03020105  RH  029%=      5-min Rain = 0
KCO2 092225Z 16010KT 30/10 A3013 RMK A01 T03020104  RH  029%=      5-min Rain = 0
KCO2 092226Z 15009KT 30/10 A3013 RMK A01 T03020102  RH  029%=      5-min Rain = 0
KCO2 092227Z 14008KT 30/11 A3013 RMK A01 T03010105  RH  030%=      5-min Rain = 0
KCO2 092228Z 14010KT 30/11 A3013 RMK A01 T03030106  RH  030%=      5-min Rain = 0
KCO2 092229Z 15008KT 30/10 A3013 RMK A01 T03040104  RH  029%=      5-min Rain = 0
KCO2 092230Z 15009KT 30/10 A3013 RMK A01 T03040104  RH  029%=      5-min Rain = 0
KCO2 092231Z 14008KT 30/10 A3013 RMK A01 T03040103  RH  029%=      5-min Rain = 0
KCO2 092232Z 16007KT 30/10 A3013 RMK A01 T03020104  RH  029%=      5-min Rain = 0
KCO2 092233Z 19007KT 30/10 A3013 RMK A01 T03030102  RH  029%=      5-min Rain = 0
KCO2 092234Z 17005KT 30/10 A3013 RMK A01 T03010101  RH  029%=      5-min Rain = 0
KCO2 092235Z 17005KT 30/10 A3013 RMK A01 T03000104  RH  030%=      5-min Rain = 0
KCO2 092236Z 17006KT 30/10 A3013 RMK A01 T03000101  RH  029%=      5-min Rain = 0
KCO2 092237Z 17004KT 30/10 A3013 RMK A01 T03000101  RH  029%=      5-min Rain = 0
KCO2 092238Z 16004KT 30/10 A3013 RMK A01 T02990101  RH  029%=      5-min Rain = 0
KCO2 092239Z 13008KT 30/10 A3013 RMK A01 T02980102  RH  030%=      5-min Rain = 0
KCO2 092240Z 13009KT 30/10 A3013 RMK A01 T02980103  RH  030%=      5-min Rain = 0
KCO2 092241Z 13008KT 30/10 A3013 RMK A01 T02990103  RH  030%=      5-min Rain = 0
KCO2 092242Z 13006KT 30/10 A3013 RMK A01 T02990101  RH  029%=      5-min Rain = 0
KCO2 092243Z 13009KT 30/10 A3013 RMK A01 T02990101  RH  029%=      5-min Rain = 0
KCO2 092244Z 13007KT 30/10 A3013 RMK A01 T02990101  RH  029%=      5-min Rain = 0
KCO2 092245Z 12006KT 30/10 A3013 RMK A01 T02970100  RH  029%=      5-min Rain = 0
KCO2 092246Z 16005KT 30/10 A3013 RMK A01 T02970103  RH  030%=      5-min Rain = 0
KCO2 092247Z 15007KT 30/10 A3013 RMK A01 T02980102  RH  030%=      5-min Rain = 0
KCO2 092248Z 16009KT 30/10 A3013 RMK A01 T03000101  RH  029%=      5-min Rain = 0
KCO2 092249Z 17007KT 30/10 A3013 RMK A01 T03000100  RH  029%=      5-min Rain = 0
KCO2 092250Z 18006KT 30/10 A3012 RMK A01 T02990099  RH  029%=      5-min Rain = 0
KCO2 092251Z 16006KT 30/10 A3012 RMK A01 T02990102  RH  030%=      5-min Rain = 0
KCO2 092252Z 13007KT 30/10 A3012 RMK A01 T03000101  RH  029%=      5-min Rain = 0
KCO2 092253Z 12010KT 30/10 A3013 RMK A01 T03010103  RH  029%=      5-min Rain = 0
KCO2 092254Z 14008KT 30/10 A3013 RMK A01 T02990099  RH  029%=      5-min Rain = 0
KCO2 092255Z 14005KT 30/10 A3012 RMK A01 T02970098  RH  029%=      5-min Rain = 0
KCO2 092256Z 13004KT 30/10 A3012 RMK A01 T02960100  RH  030%=      5-min Rain = 0
KCO2 092257Z 12006KT 30/11 A3012 RMK A01 T02960107  RH  031%=      5-min Rain = 0
KCO2 092258Z 14006KT 30/11 A3012 RMK A01 T02970106  RH  030%=      5-min Rain = 0
KCO2 092259Z 13007KT 30/10 A3012 RMK A01 T02990104  RH  030%=      5-min Rain = 0
KCO2 092300Z 12009KT 30/10 A3013 RMK A01 T03000104  RH  030%=      5-min Rain = 0
KCO2 092301Z 13008KT 30/10 A3013 RMK A01 T02990102  RH  030%=      5-min Rain = 0
KCO2 092302Z 12007KT 30/10 A3013 RMK A01 T02970104  RH  030%=      5-min Rain = 0
KCO2 092303Z 12008KT 30/10 A3013 RMK A01 T02980104  RH  030%=      5-min Rain = 0
KCO2 092304Z 12009KT 30/10 A3013 RMK A01 T02970104  RH  030%=      5-min Rain = 0
KCO2 092305Z 11008KT 30/10 A3013 RMK A01 T02970103  RH  030%=      5-min Rain = 0
KCO2 092306Z 13006KT 30/10 A3013 RMK A01 T02970102  RH  030%=      5-min Rain = 0
KCO2 092307Z 16007KT 30/10 A3013 RMK A01 T02980101  RH  029%=      5-min Rain = 0
KCO2 092308Z 15005KT 30/10 A3013 RMK A01 T02980099  RH  029%=      5-min Rain = 0
KCO2 092309Z 15007KT 30/10 A3013 RMK A01 T02970098  RH  029%=      5-min Rain = 0
KCO2 092310Z 15006KT 30/10 A3012 RMK A01 T02970101  RH  029%=      5-min Rain = 0
KCO2 092311Z 15009KT 30/10 A3012 RMK A01 T02970102  RH  030%=      5-min Rain = 0
KCO2 092312Z 15009KT 30/10 A3012 RMK A01 T02980102  RH  030%=      5-min Rain = 0
KCO2 092313Z 16009KT 30/10 A3012 RMK A01 T02980102  RH  030%=      5-min Rain = 0
KCO2 092314Z 15008KT 30/10 A3012 RMK A01 T02980101  RH  029%=      5-min Rain = 0
KCO2 092315Z 16009KT 30/10 A3012 RMK A01 T02980102  RH  030%=      5-min Rain = 0
KCO2 092316Z 16009KT 30/10 A3012 RMK A01 T02970100  RH  029%=      5-min Rain = 0
KCO2 092317Z 15009KT 30/10 A3012 RMK A01 T02960101  RH  030%=      5-min Rain = 0
KCO2 092318Z 15008KT 30/10 A3012 RMK A01 T02960102  RH  030%=      5-min Rain = 0
KCO2 092319Z 14008KT 30/10 A3012 RMK A01 T02960103  RH  030%=      5-min Rain = 0
KCO2 092320Z 14010KT 30/10 A3013 RMK A01 T02960102  RH  030%=      5-min Rain = 0
KCO2 092321Z 12009KT 30/10 A3013 RMK A01 T02950102  RH  030%=      5-min Rain = 0
KCO2 092322Z 12007KT 29/10 A3013 RMK A01 T02940104  RH  031%=      5-min Rain = 0
KCO2 092323Z 10006KT 29/10 A3012 RMK A01 T02930104  RH  031%=      5-min Rain = 0
KCO2 092324Z 12004KT 29/11 A3012 RMK A01 T02930106  RH  031%=      5-min Rain = 0
KCO2 092325Z 14005KT 29/11 A3012 RMK A01 T02920106  RH  032%=      5-min Rain = 0
KCO2 092326Z 15008KT 29/11 A3013 RMK A01 T02940105  RH  031%=      5-min Rain = 0
KCO2 092327Z 15009KT 30/10 A3013 RMK A01 T02950101  RH  030%=      5-min Rain = 0
KCO2 092328Z 15007KT 30/10 A3013 RMK A01 T02950099  RH  029%=      5-min Rain = 0
KCO2 092329Z 14009KT 30/10 A3013 RMK A01 T02950101  RH  030%=      5-min Rain = 0
KCO2 092330Z 13005KT 30/10 A3013 RMK A01 T02950099  RH  030%=      5-min Rain = 0
KCO2 092331Z 14008KT 29/10 A3013 RMK A01 T02930102  RH  030%=      5-min Rain = 0
KCO2 092332Z 14009KT 29/10 A3013 RMK A01 T02930099  RH  030%=      5-min Rain = 0
KCO2 092333Z 15007KT 29/10 A3012 RMK A01 T02920098  RH  030%=      5-min Rain = 0
KCO2 092334Z 14006KT 29/10 A3012 RMK A01 T02920101  RH  030%=      5-min Rain = 0
KCO2 092335Z 14007KT 29/10 A3013 RMK A01 T02920101  RH  030%=      5-min Rain = 0
KCO2 092336Z 14005KT 29/10 A3012 RMK A01 T02920098  RH  030%=      5-min Rain = 0
KCO2 092337Z 14005KT 29/10 A3012 RMK A01 T02910101  RH  030%=      5-min Rain = 0
KCO2 092338Z 14009KT 29/10 A3012 RMK A01 T02920100  RH  030%=      5-min Rain = 0
KCO2 092339Z 14007KT 29/10 A3012 RMK A01 T02920098  RH  030%=      5-min Rain = 0
KCO2 092340Z 13008KT 29/10 A3012 RMK A01 T02910098  RH  030%=      5-min Rain = 0
KCO2 092341Z 12008KT 29/10 A3012 RMK A01 T02910099  RH  030%=      5-min Rain = 0
KCO2 092342Z 13008KT 29/10 A3012 RMK A01 T02900098  RH  030%=      5-min Rain = 0
KCO2 092343Z 13008KT 29/10 A3013 RMK A01 T02900100  RH  030%=      5-min Rain = 0
KCO2 092344Z 14009KT 29/10 A3013 RMK A01 T02900097  RH  030%=      5-min Rain = 0
KCO2 092345Z 14007KT 29/10 A3013 RMK A01 T02890096  RH  030%=      5-min Rain = 0
KCO2 092346Z 14006KT 29/10 A3013 RMK A01 T02890098  RH  030%=      5-min Rain = 0
KCO2 092347Z 13006KT 29/10 A3013 RMK A01 T02890096  RH  030%=      5-min Rain = 0
KCO2 092348Z 13006KT 29/10 A3013 RMK A01 T02890096  RH  030%=      5-min Rain = 0
KCO2 092349Z 14006KT 29/10 A3012 RMK A01 T02880097  RH  030%=      5-min Rain = 0
KCO2 092350Z 14008KT 29/10 A3012 RMK A01 T02880098  RH  031%=      5-min Rain = 0
KCO2 092351Z 14009KT 29/10 A3013 RMK A01 T02880095  RH  030%=      5-min Rain = 0
KCO2 092352Z 15009KT 29/10 A3013 RMK A01 T02880095  RH  030%=      5-min Rain = 0
KCO2 092353Z 16008KT 29/10 A3013 RMK A01 T02870096  RH  030%=      5-min Rain = 0
KCO2 092354Z 16006KT 29/10 A3013 RMK A01 T02870096  RH  030%=      5-min Rain = 0
KCO2 092355Z 16008KT 29/10 A3013 RMK A01 T02870097  RH  031%=      5-min Rain = 0
KCO2 092356Z 15007KT 29/10 A3013 RMK A01 T02870097  RH  030%=      5-min Rain = 0
KCO2 092357Z 14006KT 29/10 A3013 RMK A01 T02870098  RH  031%=      5-min Rain = 0
KCO2 092358Z 14006KT 29/10 A3013 RMK A01 T02870098  RH  031%=      5-min Rain = 0
KCO2 092359Z 13006KT 29/10 A3013 RMK A01 T02870101  RH  031%=      5-min Rain = 0
KCO2 100000Z 13007KT 29/10 A3013 RMK A01 T02860101  RH  031%=      5-min Rain = 0
KCO2 100001Z 12007KT 29/10 A3013 RMK A01 T02850100  RH  031%=      5-min Rain = 0
KCO2 100002Z 14007KT 29/10 A3013 RMK A01 T02850101  RH  032%=      5-min Rain = 0
KCO2 100003Z 14008KT 28/10 A3013 RMK A01 T02840101  RH  032%=      5-min Rain = 0
KCO2 100004Z 14006KT 28/10 A3013 RMK A01 T02840100  RH  032%=      5-min Rain = 0
KCO2 100005Z 14008KT 28/10 A3013 RMK A01 T02830099  RH  032%=      5-min Rain = 0
KCO2 100006Z 15006KT 28/10 A3013 RMK A01 T02830099  RH  032%=      5-min Rain = 0
KCO2 100007Z 14008KT 28/10 A3013 RMK A01 T02830100  RH  032%=      5-min Rain = 0
KCO2 100008Z 14007KT 28/10 A3013 RMK A01 T02830100  RH  032%=      5-min Rain = 0
KCO2 100009Z 13006KT 28/10 A3013 RMK A01 T02820101  RH  032%=      5-min Rain = 0
KCO2 100010Z 13006KT 28/10 A3013 RMK A01 T02820101  RH  032%=      5-min Rain = 0
KCO2 100011Z 14006KT 28/10 A3013 RMK A01 T02810102  RH  033%=      5-min Rain = 0
KCO2 100012Z 14004KT 28/10 A3013 RMK A01 T02810104  RH  033%=      5-min Rain = 0
KCO2 100013Z 14006KT 28/10 A3013 RMK A01 T02800104  RH  033%=      5-min Rain = 0
KCO2 100014Z 15006KT 28/10 A3013 RMK A01 T02790101  RH  033%=      5-min Rain = 0
KCO2 100015Z 14008KT 28/10 A3013 RMK A01 T02790101  RH  033%=      5-min Rain = 0
KCO2 100016Z 13008KT 28/10 A3013 RMK A01 T02790101  RH  033%=      5-min Rain = 0
KCO2 100017Z 13007KT 28/10 A3013 RMK A01 T02780100  RH  033%=      5-min Rain = 0
KCO2 100018Z 13007KT 28/10 A3013 RMK A01 T02780101  RH  033%=      5-min Rain = 0
KCO2 100019Z 13007KT 28/10 A3013 RMK A01 T02770102  RH  033%=      5-min Rain = 0
KCO2 100020Z 14007KT 28/10 A3013 RMK A01 T02770103  RH  034%=      5-min Rain = 0
KCO2 100021Z 14006KT 28/10 A3013 RMK A01 T02760102  RH  034%=      5-min Rain = 0
KCO2 100022Z 14006KT 28/10 A3013 RMK A01 T02750102  RH  034%=      5-min Rain = 0
KCO2 100023Z 14006KT 28/10 A3013 RMK A01 T02750103  RH  034%=      5-min Rain = 0
KCO2 100024Z 14006KT 27/10 A3013 RMK A01 T02740103  RH  034%=      5-min Rain = 0
KCO2 100025Z 14006KT 27/10 A3013 RMK A01 T02730102  RH  034%=      5-min Rain = 0
KCO2 100026Z 14006KT 27/10 A3013 RMK A01 T02720102  RH  035%=      5-min Rain = 0
KCO2 100027Z 14007KT 27/10 A3013 RMK A01 T02710101  RH  034%=      5-min Rain = 0
KCO2 100028Z 13007KT 27/10 A3013 RMK A01 T02710101  RH  034%=      5-min Rain = 0
KCO2 100029Z 14007KT 27/10 A3013 RMK A01 T02700101  RH  035%=      5-min Rain = 0
KCO2 100030Z 13006KT 27/10 A3013 RMK A01 T02700101  RH  035%=      5-min Rain = 0
KCO2 100031Z 13006KT 27/10 A3013 RMK A01 T02690102  RH  035%=      5-min Rain = 0
KCO2 100032Z 13006KT 27/10 A3013 RMK A01 T02670103  RH  036%=      5-min Rain = 0
KCO2 100033Z 13006KT 27/10 A3013 RMK A01 T02660104  RH  036%=      5-min Rain = 0
KCO2 100034Z 13006KT 26/10 A3013 RMK A01 T02640104  RH  037%=      5-min Rain = 0
KCO2 100035Z 13006KT 26/10 A3013 RMK A01 T02620104  RH  037%=      5-min Rain = 0
KCO2 100036Z 14006KT 26/11 A3013 RMK A01 T02610105  RH  038%=      5-min Rain = 0
KCO2 100037Z 14006KT 26/11 A3013 RMK A01 T02590105  RH  038%=      5-min Rain = 0
KCO2 100038Z 14005KT 26/11 A3013 RMK A01 T02570105  RH  039%=      5-min Rain = 0
KCO2 100039Z 13005KT 26/11 A3013 RMK A01 T02550106  RH  039%=      5-min Rain = 0
KCO2 100040Z 13005KT 25/11 A3013 RMK A01 T02540107  RH  040%=      5-min Rain = 0
KCO2 100041Z 13005KT 25/11 A3013 RMK A01 T02520107  RH  040%=      5-min Rain = 0
KCO2 100042Z 13006KT 25/11 A3013 RMK A01 T02510107  RH  040%=      5-min Rain = 0
KCO2 100043Z 13005KT 25/11 A3013 RMK A01 T02500107  RH  041%=      5-min Rain = 0
KCO2 100044Z 13005KT 25/11 A3013 RMK A01 T02490108  RH  041%=      5-min Rain = 0
KCO2 100045Z 13006KT 25/11 A3013 RMK A01 T02470106  RH  041%=      5-min Rain = 0
KCO2 100046Z 14006KT 25/11 A3013 RMK A01 T02460106  RH  041%=      5-min Rain = 0
KCO2 100047Z 13006KT 25/11 A3013 RMK A01 T02450106  RH  042%=      5-min Rain = 0
KCO2 100048Z 13006KT 24/11 A3013 RMK A01 T02440106  RH  042%=      5-min Rain = 0
KCO2 100049Z 14006KT 24/11 A3013 RMK A01 T02430105  RH  042%=      5-min Rain = 0
KCO2 100050Z 14006KT 24/11 A3013 RMK A01 T02420105  RH  042%=      5-min Rain = 0
KCO2 100051Z 13006KT 24/11 A3013 RMK A01 T02410105  RH  042%=      5-min Rain = 0
KCO2 100052Z 14006KT 24/10 A3013 RMK A01 T02400104  RH  042%=      5-min Rain = 0
KCO2 100053Z 14006KT 24/10 A3013 RMK A01 T02390104  RH  042%=      5-min Rain = 0
KCO2 100054Z 14006KT 24/10 A3013 RMK A01 T02390104  RH  043%=      5-min Rain = 0
KCO2 100055Z 14006KT 24/10 A3013 RMK A01 T02380104  RH  043%=      5-min Rain = 0
KCO2 100056Z 14006KT 24/10 A3013 RMK A01 T02370103  RH  043%=      5-min Rain = 0
KCO2 100057Z 14006KT 24/10 A3013 RMK A01 T02370104  RH  043%=      5-min Rain = 0
KCO2 100058Z 14006KT 24/10 A3013 RMK A01 T02360103  RH  043%=      5-min Rain = 0
KCO2 100059Z 14006KT 24/10 A3013 RMK A01 T02360103  RH  043%=      5-min Rain = 0
KCO2 100100Z 14006KT 24/10 A3013 RMK A01 T02350103  RH  043%=      5-min Rain = 0
KCO2 100101Z 13006KT 23/10 A3013 RMK A01 T02340103  RH  044%=      5-min Rain = 0
KCO2 100102Z 13006KT 23/10 A3013 RMK A01 T02330103  RH  044%=      5-min Rain = 0
KCO2 100103Z 13006KT 23/10 A3013 RMK A01 T02320104  RH  044%=      5-min Rain = 0
KCO2 100104Z 13006KT 23/10 A3013 RMK A01 T02320104  RH  044%=      5-min Rain = 0
KCO2 100105Z 13006KT 23/10 A3013 RMK A01 T02320104  RH  044%=      5-min Rain = 0
KCO2 100106Z 13006KT 23/10 A3013 RMK A01 T02320104  RH  044%=      5-min Rain = 0
KCO2 100107Z 13006KT 23/10 A3013 RMK A01 T02310104  RH  045%=      5-min Rain = 0
KCO2 100108Z 13006KT 23/11 A3013 RMK A01 T02310105  RH  045%=      5-min Rain = 0
KCO2 100109Z 13007KT 23/11 A3013 RMK A01 T02320105  RH  045%=      5-min Rain = 0
KCO2 100110Z 13006KT 23/11 A3013 RMK A01 T02320105  RH  045%=      5-min Rain = 0
KCO2 100111Z 13007KT 23/11 A3013 RMK A01 T02320105  RH  045%=      5-min Rain = 0
KCO2 100112Z 13006KT 23/11 A3013 RMK A01 T02320105  RH  045%=      5-min Rain = 0
KCO2 100113Z 13007KT 23/11 A3013 RMK A01 T02310106  RH  045%=      5-min Rain = 0
KCO2 100114Z 13007KT 23/11 A3013 RMK A01 T02310106  RH  045%=      5-min Rain = 0
KCO2 100115Z 13007KT 23/11 A3014 RMK A01 T02310106  RH  045%=      5-min Rain = 0
KCO2 100116Z 13007KT 23/11 A3014 RMK A01 T02300106  RH  045%=      5-min Rain = 0
KCO2 100117Z 13006KT 23/11 A3014 RMK A01 T02300106  RH  046%=      5-min Rain = 0
KCO2 100118Z 13006KT 23/11 A3014 RMK A01 T02290106  RH  046%=      5-min Rain = 0
KCO2 100119Z 13006KT 23/11 A3014 RMK A01 T02280106  RH  046%=      5-min Rain = 0
KCO2 100120Z 13006KT 23/11 A3014 RMK A01 T02280106  RH  046%=      5-min Rain = 0
KCO2 100121Z 13006KT 23/11 A3014 RMK A01 T02270106  RH  046%=      5-min Rain = 0
KCO2 100122Z 13006KT 23/11 A3014 RMK A01 T02270106  RH  046%=      5-min Rain = 0
KCO2 100123Z 13006KT 23/11 A3014 RMK A01 T02260106  RH  047%=      5-min Rain = 0
KCO2 100124Z 13006KT 23/11 A3014 RMK A01 T02250107  RH  047%=      5-min Rain = 0
KCO2 100125Z 13006KT 23/11 A3014 RMK A01 T02250107  RH  047%=      5-min Rain = 0
KCO2 100126Z 13006KT 22/11 A3014 RMK A01 T02240107  RH  047%=      5-min Rain = 0
KCO2 100127Z 13006KT 22/11 A3014 RMK A01 T02230107  RH  048%=      5-min Rain = 0
KCO2 100128Z 13006KT 22/11 A3014 RMK A01 T02220107  RH  048%=      5-min Rain = 0
KCO2 100129Z 13006KT 22/11 A3014 RMK A01 T02220107  RH  048%=      5-min Rain = 0
KCO2 100130Z 12006KT 22/11 A3014 RMK A01 T02220107  RH  048%=      5-min Rain = 0
KCO2 100131Z 12006KT 22/11 A3014 RMK A01 T02220107  RH  048%=      5-min Rain = 0
KCO2 100132Z 12005KT 22/11 A3014 RMK A01 T02220107  RH  048%=      5-min Rain = 0
KCO2 100133Z 12005KT 22/11 A3014 RMK A01 T02220107  RH  048%=      5-min Rain = 0
KCO2 100134Z 12005KT 22/11 A3014 RMK A01 T02220107  RH  048%=      5-min Rain = 0
KCO2 100135Z 12005KT 22/11 A3014 RMK A01 T02230107  RH  048%=      5-min Rain = 0
KCO2 100136Z 12005KT 22/11 A3014 RMK A01 T02230107  RH  048%=      5-min Rain = 0
KCO2 100137Z 12005KT 22/11 A3014 RMK A01 T02220107  RH  048%=      5-min Rain = 0
KCO2 100138Z 11005KT 22/11 A3014 RMK A01 T02220108  RH  048%=      5-min Rain = 0
KCO2 100139Z 11005KT 22/11 A3014 RMK A01 T02220108  RH  048%=      5-min Rain = 0
KCO2 100140Z 11005KT 22/11 A3014 RMK A01 T02220108  RH  048%=      5-min Rain = 0
KCO2 100141Z 11005KT 22/11 A3014 RMK A01 T02220108  RH  048%=      5-min Rain = 0
KCO2 100142Z 11005KT 22/11 A3014 RMK A01 T02220108  RH  048%=      5-min Rain = 0
KCO2 100143Z 11005KT 22/11 A3014 RMK A01 T02220108  RH  048%=      5-min Rain = 0
KCO2 100144Z 11005KT 22/11 A3014 RMK A01 T02220108  RH  048%=      5-min Rain = 0
KCO2 100145Z 11005KT 22/11 A3014 RMK A01 T02220108  RH  048%=      5-min Rain = 0
KCO2 100146Z 11005KT 22/11 A3014 RMK A01 T02220109  RH  049%=      5-min Rain = 0
KCO2 100147Z 11005KT 22/11 A3014 RMK A01 T02210108  RH  049%=      5-min Rain = 0
KCO2 100148Z 11005KT 22/11 A3014 RMK A01 T02200108  RH  049%=      5-min Rain = 0
KCO2 100149Z 11005KT 22/11 A3014 RMK A01 T02190108  RH  049%=      5-min Rain = 0
KCO2 100150Z 11005KT 22/11 A3014 RMK A01 T02180108  RH  050%=      5-min Rain = 0
KCO2 100151Z 11005KT 22/11 A3014 RMK A01 T02170108  RH  050%=      5-min Rain = 0
KCO2 100152Z 10005KT 22/11 A3014 RMK A01 T02160108  RH  050%=      5-min Rain = 0
KCO2 100153Z 11005KT 22/11 A3014 RMK A01 T02160108  RH  050%=      5-min Rain = 0
KCO2 100154Z 10005KT 22/11 A3014 RMK A01 T02150109  RH  051%=      5-min Rain = 0
KCO2 100155Z 10006KT 22/11 A3014 RMK A01 T02150109  RH  051%=      5-min Rain = 0
KCO2 100156Z 10006KT 22/11 A3015 RMK A01 T02160110  RH  051%=      5-min Rain = 0
KCO2 100157Z 11005KT 22/11 A3015 RMK A01 T02150109  RH  051%=      5-min Rain = 0
KCO2 100158Z 11005KT 22/11 A3015 RMK A01 T02160109  RH  051%=      5-min Rain = 0
KCO2 100159Z 11005KT 22/11 A3015 RMK A01 T02170109  RH  050%=      5-min Rain = 0
KCO2 100200Z 11005KT 22/11 A3015 RMK A01 T02170109  RH  050%=      5-min Rain = 0
KCO2 100201Z 10005KT 22/11 A3015 RMK A01 T02180109  RH  050%=      5-min Rain = 0
KCO2 100202Z 10005KT 22/11 A3015 RMK A01 T02190109  RH  050%=      5-min Rain = 0
KCO2 100203Z 10005KT 22/11 A3015 RMK A01 T02190109  RH  050%=      5-min Rain = 0
KCO2 100204Z 10005KT 22/11 A3015 RMK A01 T02190110  RH  050%=      5-min Rain = 0
KCO2 100205Z 10004KT 22/11 A3015 RMK A01 T02190110  RH  050%=      5-min Rain = 0
KCO2 100206Z 10004KT 22/11 A3015 RMK A01 T02190109  RH  050%=      5-min Rain = 0
KCO2 100207Z 10004KT 22/11 A3015 RMK A01 T02190110  RH  050%=      5-min Rain = 0
KCO2 100208Z 10004KT 22/11 A3015 RMK A01 T02190110  RH  050%=      5-min Rain = 0
KCO2 100209Z 10004KT 22/11 A3015 RMK A01 T02180110  RH  050%=      5-min Rain = 0
KCO2 100210Z 10004KT 22/11 A3015 RMK A01 T02180109  RH  050%=      5-min Rain = 0
KCO2 100211Z 10004KT 22/11 A3015 RMK A01 T02170109  RH  050%=      5-min Rain = 0
KCO2 100212Z 10004KT 22/11 A3015 RMK A01 T02150109  RH  051%=      5-min Rain = 0
KCO2 100213Z 09004KT 21/11 A3015 RMK A01 T02140109  RH  051%=      5-min Rain = 0
KCO2 100214Z 09004KT 21/11 A3015 RMK A01 T02120109  RH  052%=      5-min Rain = 0
KCO2 100215Z 09004KT 21/11 A3015 RMK A01 T02110109  RH  052%=      5-min Rain = 0
KCO2 100216Z 09004KT 21/11 A3015 RMK A01 T02100109  RH  052%=      5-min Rain = 0
KCO2 100217Z 09004KT 21/11 A3015 RMK A01 T02090109  RH  053%=      5-min Rain = 0
KCO2 100218Z 08004KT 21/11 A3015 RMK A01 T02080109  RH  053%=      5-min Rain = 0
KCO2 100219Z 08004KT 21/11 A3015 RMK A01 T02070109  RH  054%=      5-min Rain = 0
KCO2 100220Z 08004KT 21/11 A3015 RMK A01 T02050109  RH  054%=      5-min Rain = 0
KCO2 100221Z 08005KT 20/11 A3015 RMK A01 T02040109  RH  055%=      5-min Rain = 0
KCO2 100222Z 07005KT 20/11 A3015 RMK A01 T02030109  RH  055%=      5-min Rain = 0
KCO2 100223Z 07006KT 20/11 A3015 RMK A01 T02020109  RH  055%=      5-min Rain = 0
KCO2 100224Z 07006KT 20/11 A3015 RMK A01 T02010109  RH  055%=      5-min Rain = 0
KCO2 100225Z 07007KT 20/11 A3015 RMK A01 T02000109  RH  056%=      5-min Rain = 0
KCO2 100226Z 07006KT 20/11 A3015 RMK A01 T01990109  RH  056%=      5-min Rain = 0
KCO2 100227Z 07006KT 20/11 A3015 RMK A01 T01980109  RH  056%=      5-min Rain = 0
KCO2 100228Z 07006KT 20/11 A3015 RMK A01 T01970109  RH  057%=      5-min Rain = 0
KCO2 100229Z 07006KT 20/11 A3015 RMK A01 T01970109  RH  057%=      5-min Rain = 0
KCO2 100230Z 07006KT 20/11 A3016 RMK A01 T01960110  RH  057%=      5-min Rain = 0
KCO2 100231Z 07006KT 20/11 A3016 RMK A01 T01960110  RH  058%=      5-min Rain = 0
KCO2 100232Z 08006KT 20/11 A3016 RMK A01 T01950110  RH  058%=      5-min Rain = 0
KCO2 100233Z 08006KT 20/11 A3016 RMK A01 T01950110  RH  058%=      5-min Rain = 0
KCO2 100234Z 08007KT 20/11 A3016 RMK A01 T01960109  RH  057%=      5-min Rain = 0
KCO2 100235Z 08006KT 20/11 A3016 RMK A01 T01970109  RH  057%=      5-min Rain = 0
KCO2 100236Z 08006KT 20/11 A3016 RMK A01 T01970109  RH  057%=      5-min Rain = 0
KCO2 100237Z 08006KT 20/11 A3016 RMK A01 T01980109  RH  057%=      5-min Rain = 0
KCO2 100238Z 08007KT 20/11 A3016 RMK A01 T01980109  RH  056%=      5-min Rain = 0
KCO2 100239Z 08007KT 20/11 A3016 RMK A01 T01990109  RH  056%=      5-min Rain = 0
KCO2 100240Z 08007KT 20/11 A3016 RMK A01 T01990109  RH  056%=      5-min Rain = 0
KCO2 100241Z 08007KT 20/11 A3016 RMK A01 T01990109  RH  056%=      5-min Rain = 0
KCO2 100242Z 07007KT 20/11 A3016 RMK A01 T01990109  RH  056%=      5-min Rain = 0
KCO2 100243Z 07008KT 20/11 A3016 RMK A01 T01990109  RH  056%=      5-min Rain = 0
KCO2 100244Z 07008KT 20/11 A3016 RMK A01 T01980108  RH  056%=      5-min Rain = 0
KCO2 100245Z 07008KT 20/11 A3016 RMK A01 T01980108  RH  056%=      5-min Rain = 0
KCO2 100246Z 08007KT 20/11 A3016 RMK A01 T01980108  RH  056%=      5-min Rain = 0
KCO2 100247Z 07007KT 20/11 A3016 RMK A01 T01990108  RH  056%=      5-min Rain = 0
KCO2 100248Z 07007KT 20/11 A3016 RMK A01 T01990109  RH  056%=      5-min Rain = 0
KCO2 100249Z 07007KT 20/11 A3016 RMK A01 T01980108  RH  056%=      5-min Rain = 0
KCO2 100250Z 07008KT 20/11 A3016 RMK A01 T01990108  RH  056%=      5-min Rain = 0
KCO2 100251Z 07008KT 20/11 A3016 RMK A01 T01980108  RH  056%=      5-min Rain = 0
KCO2 100252Z 07008KT 20/11 A3016 RMK A01 T01980108  RH  056%=      5-min Rain = 0
KCO2 100253Z 07008KT 20/11 A3016 RMK A01 T01970108  RH  056%=      5-min Rain = 0
KCO2 100254Z 07008KT 20/11 A3016 RMK A01 T01970108  RH  056%=      5-min Rain = 0
KCO2 100255Z 07008KT 20/11 A3016 RMK A01 T01970108  RH  056%=      5-min Rain = 0
KCO2 100256Z 07008KT 20/11 A3016 RMK A01 T01970107  RH  056%=      5-min Rain = 0
KCO2 100257Z 08008KT 20/11 A3016 RMK A01 T01970107  RH  056%=      5-min Rain = 0
KCO2 100258Z 08008KT 20/11 A3016 RMK A01 T01970107  RH  056%=      5-min Rain = 0
KCO2 100259Z 08007KT 20/11 A3016 RMK A01 T01970107  RH  056%=      5-min Rain = 0
KCO2 100300Z 08007KT 20/11 A3016 RMK A01 T01970108  RH  056%=      5-min Rain = 0
KCO2 100301Z 08007KT 20/11 A3016 RMK A01 T01970108  RH  056%=      5-min Rain = 0
KCO2 100302Z 07007KT 20/11 A3016 RMK A01 T01970108  RH  057%=      5-min Rain = 0
KCO2 100303Z 07007KT 20/11 A3016 RMK A01 T01960108  RH  057%=      5-min Rain = 0
KCO2 100304Z 07007KT 20/11 A3016 RMK A01 T01950108  RH  057%=      5-min Rain = 0
KCO2 100305Z 07007KT 19/11 A3016 RMK A01 T01940108  RH  057%=      5-min Rain = 0
KCO2 100306Z 07007KT 19/11 A3016 RMK A01 T01940108  RH  058%=      5-min Rain = 0
KCO2 100307Z 07007KT 19/11 A3016 RMK A01 T01930108  RH  058%=      5-min Rain = 0
KCO2 100308Z 07007KT 19/11 A3016 RMK A01 T01920107  RH  058%=      5-min Rain = 0
KCO2 100309Z 07007KT 19/11 A3016 RMK A01 T01920107  RH  058%=      5-min Rain = 0
KCO2 100310Z 08007KT 19/11 A3016 RMK A01 T01920107  RH  058%=      5-min Rain = 0
KCO2 100311Z 08007KT 19/11 A3016 RMK A01 T01920107  RH  058%=      5-min Rain = 0
KCO2 100312Z 08007KT 19/11 A3016 RMK A01 T01920107  RH  058%=      5-min Rain = 0
KCO2 100313Z 08007KT 19/11 A3016 RMK A01 T01930107  RH  058%=      5-min Rain = 0
KCO2 100314Z 08007KT 19/11 A3016 RMK A01 T01940108  RH  058%=      5-min Rain = 0
KCO2 100315Z 07007KT 19/11 A3016 RMK A01 T01930107  RH  057%=      5-min Rain = 0
KCO2 100316Z 07007KT 19/11 A3016 RMK A01 T01930108  RH  057%=      5-min Rain = 0
KCO2 100317Z 07007KT 19/11 A3017 RMK A01 T01930108  RH  058%=      5-min Rain = 0
KCO2 100318Z 07007KT 19/11 A3017 RMK A01 T01940108  RH  058%=      5-min Rain = 0
KCO2 100319Z 07007KT 19/11 A3017 RMK A01 T01930108  RH  058%=      5-min Rain = 0
KCO2 100320Z 07007KT 19/11 A3017 RMK A01 T01930108  RH  058%=      5-min Rain = 0
KCO2 100321Z 08007KT 19/11 A3017 RMK A01 T01930108  RH  058%=      5-min Rain = 0
KCO2 100322Z 07007KT 19/11 A3017 RMK A01 T01930108  RH  058%=      5-min Rain = 0
KCO2 100323Z 07007KT 19/11 A3017 RMK A01 T01930108  RH  058%=      5-min Rain = 0
KCO2 100324Z 08007KT 19/11 A3017 RMK A01 T01930108  RH  058%=      5-min Rain = 0
KCO2 100325Z 08007KT 19/11 A3017 RMK A01 T01920108  RH  058%=      5-min Rain = 0
KCO2 100326Z 08007KT 19/11 A3017 RMK A01 T01920107  RH  058%=      5-min Rain = 0
KCO2 100327Z 07007KT 19/11 A3017 RMK A01 T01910107  RH  058%=      5-min Rain = 0
KCO2 100328Z 08007KT 19/11 A3017 RMK A01 T01910107  RH  058%=      5-min Rain = 0
KCO2 100329Z 07007KT 19/11 A3017 RMK A01 T01910108  RH  058%=      5-min Rain = 0
KCO2 100330Z 08007KT 19/11 A3017 RMK A01 T01900107  RH  059%=      5-min Rain = 0
KCO2 100331Z 08007KT 19/11 A3017 RMK A01 T01900107  RH  059%=      5-min Rain = 0
KCO2 100332Z 07007KT 19/11 A3017 RMK A01 T01890107  RH  059%=      5-min Rain = 0
KCO2 100333Z 07007KT 19/11 A3017 RMK A01 T01890107  RH  059%=      5-min Rain = 0
KCO2 100334Z 07007KT 19/11 A3017 RMK A01 T01890107  RH  059%=      5-min Rain = 0
KCO2 100335Z 08007KT 19/11 A3017 RMK A01 T01880107  RH  059%=      5-min Rain = 0
KCO2 100336Z 08007KT 19/11 A3017 RMK A01 T01870107  RH  059%=      5-min Rain = 0
KCO2 100337Z 08006KT 19/11 A3017 RMK A01 T01870107  RH  059%=      5-min Rain = 0
KCO2 100338Z 08006KT 19/11 A3017 RMK A01 T01870107  RH  060%=      5-min Rain = 0
KCO2 100339Z 08006KT 19/11 A3017 RMK A01 T01860107  RH  060%=      5-min Rain = 0
KCO2 100340Z 08006KT 19/11 A3017 RMK A01 T01860107  RH  060%=      5-min Rain = 0
KCO2 100341Z 08005KT 19/11 A3017 RMK A01 T01850107  RH  060%=      5-min Rain = 0
KCO2 100342Z 08005KT 19/11 A3017 RMK A01 T01850107  RH  060%=      5-min Rain = 0
KCO2 100343Z 08005KT 19/11 A3017 RMK A01 T01850107  RH  060%=      5-min Rain = 0
KCO2 100344Z 09004KT 18/11 A3017 RMK A01 T01840107  RH  060%=      5-min Rain = 0
KCO2 100345Z 09004KT 18/11 A3017 RMK A01 T01840106  RH  061%=      5-min Rain = 0
KCO2 100346Z 09004KT 18/11 A3017 RMK A01 T01820106  RH  061%=      5-min Rain = 0
KCO2 100347Z 09003KT 18/11 A3017 RMK A01 T01800106  RH  062%=      5-min Rain = 0
KCO2 100348Z 09004KT 18/11 A3017 RMK A01 T01790106  RH  062%=      5-min Rain = 0
KCO2 100349Z 09005KT 18/11 A3017 RMK A01 T01790106  RH  062%=      5-min Rain = 0
KCO2 100350Z 10004KT 18/11 A3018 RMK A01 T01800106  RH  062%=      5-min Rain = 0
KCO2 100351Z 09004KT 18/11 A3018 RMK A01 T01800106  RH  062%=      5-min Rain = 0
KCO2 100352Z 09004KT 18/11 A3018 RMK A01 T01800106  RH  062%=      5-min Rain = 0
KCO2 100353Z 09004KT 18/11 A3018 RMK A01 T01790106  RH  062%=      5-min Rain = 0
KCO2 100354Z 08004KT 18/11 A3018 RMK A01 T01790106  RH  062%=      5-min Rain = 0
KCO2 100355Z 09004KT 18/11 A3018 RMK A01 T01780106  RH  063%=      5-min Rain = 0
KCO2 100356Z 09004KT 18/11 A3018 RMK A01 T01780106  RH  063%=      5-min Rain = 0
KCO2 100357Z 09004KT 18/11 A3018 RMK A01 T01780106  RH  063%=      5-min Rain = 0
KCO2 100358Z 09004KT 18/11 A3018 RMK A01 T01780106  RH  063%=      5-min Rain = 0
KCO2 100359Z 09004KT 18/11 A3018 RMK A01 T01780106  RH  063%=      5-min Rain = 0
KCO2 100400Z 09004KT 18/11 A3018 RMK A01 T01780106  RH  063%=      5-min Rain = 0
KCO2 100401Z 09004KT 18/11 A3018 RMK A01 T01790106  RH  062%=      5-min Rain = 0
KCO2 100402Z 09004KT 18/11 A3018 RMK A01 T01790106  RH  062%=      5-min Rain = 0
KCO2 100403Z 09004KT 18/11 A3018 RMK A01 T01790106  RH  062%=      5-min Rain = 0
KCO2 100404Z 09004KT 18/11 A3018 RMK A01 T01790107  RH  063%=      5-min Rain = 0
KCO2 100405Z 10004KT 18/11 A3018 RMK A01 T01790106  RH  062%=      5-min Rain = 0
KCO2 100406Z 09004KT 18/11 A3018 RMK A01 T01790106  RH  062%=      5-min Rain = 0
KCO2 100407Z 09004KT 18/11 A3018 RMK A01 T01790106  RH  062%=      5-min Rain = 0
KCO2 100408Z 09004KT 18/11 A3018 RMK A01 T01790106  RH  062%=      5-min Rain = 0
KCO2 100409Z 09005KT 18/11 A3018 RMK A01 T01790106  RH  062%=      5-min Rain = 0
KCO2 100410Z 09005KT 18/11 A3018 RMK A01 T01790106  RH  062%=      5-min Rain = 0
KCO2 100411Z 09005KT 18/11 A3018 RMK A01 T01790106  RH  062%=      5-min Rain = 0
KCO2 100412Z 09005KT 18/11 A3018 RMK A01 T01790106  RH  062%=      5-min Rain = 0
KCO2 100413Z 10005KT 18/11 A3018 RMK A01 T01790106  RH  062%=      5-min Rain = 0
KCO2 100414Z 10005KT 18/11 A3018 RMK A01 T01790106  RH  063%=      5-min Rain = 0
KCO2 100415Z 10005KT 18/11 A3018 RMK A01 T01780106  RH  063%=      5-min Rain = 0
KCO2 100416Z 10006KT 18/11 A3018 RMK A01 T01770106  RH  063%=      5-min Rain = 0
KCO2 100417Z 10006KT 18/11 A3018 RMK A01 T01760106  RH  063%=      5-min Rain = 0
KCO2 100418Z 10006KT 18/11 A3018 RMK A01 T01750106  RH  064%=      5-min Rain = 0
KCO2 100419Z 10006KT 18/11 A3018 RMK A01 T01750106  RH  064%=      5-min Rain = 0
KCO2 100420Z 10005KT 18/11 A3018 RMK A01 T01750106  RH  064%=      5-min Rain = 0
KCO2 100421Z 10006KT 18/11 A3018 RMK A01 T01750106  RH  064%=      5-min Rain = 0
KCO2 100422Z 10006KT 17/11 A3018 RMK A01 T01740105  RH  064%=      5-min Rain = 0
KCO2 100423Z 10006KT 18/11 A3018 RMK A01 T01750106  RH  064%=      5-min Rain = 0
KCO2 100424Z 10006KT 18/11 A3018 RMK A01 T01750106  RH  064%=      5-min Rain = 0
KCO2 100425Z 10006KT 18/11 A3018 RMK A01 T01760106  RH  064%=      5-min Rain = 0
KCO2 100426Z 10006KT 18/11 A3018 RMK A01 T01750106  RH  064%=      5-min Rain = 0
KCO2 100427Z 10006KT 18/11 A3018 RMK A01 T01750106  RH  064%=      5-min Rain = 0
KCO2 100428Z 10006KT 18/11 A3018 RMK A01 T01750106  RH  064%=      5-min Rain = 0
KCO2 100429Z 10005KT 18/11 A3018 RMK A01 T01750106  RH  064%=      5-min Rain = 0
KCO2 100430Z 10005KT 18/11 A3018 RMK A01 T01750106  RH  064%=      5-min Rain = 0
KCO2 100431Z 10005KT 17/11 A3018 RMK A01 T01740106  RH  064%=      5-min Rain = 0
KCO2 100432Z 10005KT 17/11 A3018 RMK A01 T01730106  RH  064%=      5-min Rain = 0
KCO2 100433Z 10005KT 17/11 A3018 RMK A01 T01730106  RH  065%=      5-min Rain = 0
KCO2 100434Z 10005KT 17/11 A3018 RMK A01 T01720105  RH  065%=      5-min Rain = 0
KCO2 100435Z 10005KT 17/11 A3018 RMK A01 T01710105  RH  065%=      5-min Rain = 0
KCO2 100436Z 10005KT 17/11 A3018 RMK A01 T01700105  RH  065%=      5-min Rain = 0
KCO2 100437Z 10005KT 17/11 A3018 RMK A01 T01700105  RH  066%=      5-min Rain = 0
KCO2 100438Z 10005KT 17/10 A3018 RMK A01 T01690104  RH  066%=      5-min Rain = 0
KCO2 100439Z 10005KT 17/11 A3018 RMK A01 T01690105  RH  066%=      5-min Rain = 0
KCO2 100440Z 10005KT 17/11 A3018 RMK A01 T01680105  RH  066%=      5-min Rain = 0
KCO2 100441Z 10005KT 17/10 A3018 RMK A01 T01680104  RH  066%=      5-min Rain = 0
KCO2 100442Z 10005KT 17/10 A3018 RMK A01 T01680104  RH  066%=      5-min Rain = 0
KCO2 100443Z 10005KT 17/10 A3018 RMK A01 T01680104  RH  066%=      5-min Rain = 0
KCO2 100444Z 11004KT 17/10 A3018 RMK A01 T01680104  RH  066%=      5-min Rain = 0
KCO2 100445Z 11004KT 17/10 A3018 RMK A01 T01680104  RH  066%=      5-min Rain = 0
KCO2 100446Z 12004KT 17/10 A3018 RMK A01 T01680104  RH  066%=      5-min Rain = 0
KCO2 100447Z 12004KT 17/11 A3018 RMK A01 T01690105  RH  066%=      5-min Rain = 0
KCO2 100448Z 12005KT 17/10 A3018 RMK A01 T01690104  RH  066%=      5-min Rain = 0
KCO2 100449Z 12005KT 17/10 A3019 RMK A01 T01690104  RH  066%=      5-min Rain = 0
KCO2 100450Z 12005KT 17/10 A3019 RMK A01 T01690104  RH  066%=      5-min Rain = 0
KCO2 100451Z 12005KT 17/10 A3019 RMK A01 T01690104  RH  066%=      5-min Rain = 0
KCO2 100452Z 12005KT 17/10 A3019 RMK A01 T01690104  RH  066%=      5-min Rain = 0
KCO2 100453Z 12005KT 17/10 A3019 RMK A01 T01680104  RH  066%=      5-min Rain = 0
KCO2 100454Z 12004KT 17/10 A3019 RMK A01 T01680104  RH  066%=      5-min Rain = 0
KCO2 100455Z 13005KT 17/10 A3019 RMK A01 T01670104  RH  066%=      5-min Rain = 0
KCO2 100456Z 13005KT 17/10 A3019 RMK A01 T01670104  RH  066%=      5-min Rain = 0
KCO2 100457Z 13005KT 17/10 A3019 RMK A01 T01660104  RH  066%=      5-min Rain = 0
KCO2 100458Z 13005KT 17/10 A3019 RMK A01 T01670104  RH  066%=      5-min Rain = 0
KCO2 100459Z 14005KT 17/10 A3019 RMK A01 T01660104  RH  066%=      5-min Rain = 0

Page generated in 0.0789 seconds.